M I D A S
Marine Information and Data Acquisition System
Tripno 1679 of the Zeeleeuw from 2009-04-22 07:15:18 to 2009-04-22 11:59:43
Back to CruiseResearch ActivitiesStationsMapUnderway DataData graphs

EquipmentUnitsComment
TimeDGPSUTC
LatitudeDGPSDM.mWGS84
LongitudeDGPSDM.mWGS84
TemperatureSBE03/SBE38deg celciusITS90
ConductivitySBE21S/mITS90
SalinitySBE21 Practical Salinity Units
ChlorophylAChelsea fluorimeterg/lCalibrated in Aceton
Missing or incorrect values are displayed as -999
Sea surface data collected by the RV Zeeleeuw from 2009-04-22 07:07:40 to 2009-04-22 12:13:01
                                                                                    Next 1000 lines
Time Latitude Longitude Temperature Conductivity Salinity ChlorophylA
2009-04-22 07:07:50 51°13.664 2°55.956 -999 0.024714 0.139409 -1.10504
2009-04-22 07:07:55 51°13.665 2°55.953 -999 0.024714 0.139411 -1.10504
2009-04-22 07:08:00 51°13.666 2°55.949 -999 0.024714 0.139411 -1.10504
2009-04-22 07:08:06 51°13.667 2°55.944 -999 0.024714 0.139411 -1.10504
2009-04-22 07:08:11 51°13.668 2°55.94 -999 0.024714 0.139411 -1.10504
2009-04-22 07:08:17 51°13.67 2°55.934 -999 0.024714 0.139411 -1.10504
2009-04-22 07:08:22 51°13.671 2°55.928 -999 0.024714 0.139414 -1.10504
2009-04-22 07:08:28 51°13.673 2°55.922 -999 0.024714 0.139414 -1.10504
2009-04-22 07:08:34 51°13.675 2°55.914 -999 0.024714 0.139416 -1.10504
2009-04-22 07:08:39 51°13.676 2°55.908 -999 0.024714 0.139414 -1.10504
2009-04-22 07:08:44 51°13.678 2°55.902 -999 0.024714 0.139416 -1.10504
2009-04-22 07:08:49 51°13.679 2°55.895 -999 0.024714 0.139416 -1.10504
2009-04-22 07:08:54 51°13.68 2°55.888 -999 0.024714 0.139416 -1.10504
2009-04-22 07:08:58 51°13.682 2°55.882 -999 0.024714 0.139416 -1.10504
2009-04-22 07:09:04 51°13.683 2°55.873 -999 0.024714 0.139416 -1.10504
2009-04-22 07:09:09 51°13.684 2°55.865 -999 0.024714 0.139419 -1.10504
2009-04-22 07:09:14 51°13.686 2°55.857 -999 0.024714 0.139419 -1.10504
2009-04-22 07:09:19 51°13.687 2°55.849 -999 0.024714 0.139419 -1.10504
2009-04-22 07:09:24 51°13.689 2°55.841 -999 0.024714 0.139419 -1.10504
2009-04-22 07:09:29 51°13.69 2°55.834 -999 0.024714 0.139419 -1.10504
2009-04-22 07:09:34 51°13.691 2°55.826 -999 0.024714 0.139421 -1.10504
2009-04-22 07:09:39 51°13.692 2°55.819 -999 0.024714 0.139419 -1.10504
2009-04-22 07:09:44 51°13.694 2°55.812 -999 0.024714 0.139421 -1.10504
2009-04-22 07:09:48 51°13.694 2°55.807 -999 0.024714 0.139421 -1.10504
2009-04-22 07:09:54 51°13.696 2°55.799 -999 0.024714 0.139421 -1.10504
2009-04-22 07:09:58 51°13.697 2°55.794 -999 0.024714 0.139421 -1.10504
2009-04-22 07:10:04 51°13.698 2°55.786 -999 0.024714 0.139423 -1.10504
2009-04-22 07:10:09 51°13.699 2°55.78 -999 0.024714 0.139423 -1.10504
2009-04-22 07:10:14 51°13.7 2°55.774 -999 0.024714 0.139426 -1.10504
2009-04-22 07:10:18 51°13.701 2°55.77 -999 0.024714 0.139426 -1.10504
2009-04-22 07:10:23 51°13.701 2°55.765 -999 0.024714 0.139423 -1.10504
2009-04-22 07:10:28 51°13.702 2°55.76 -999 0.024714 0.139423 -1.10504
2009-04-22 07:10:33 51°13.703 2°55.756 -999 0.024714 0.139426 -1.10504
2009-04-22 07:10:38 51°13.703 2°55.753 -999 0.024714 0.139428 -1.10504
2009-04-22 07:10:43 51°13.704 2°55.75 -999 0.024714 0.139428 -1.10504
2009-04-22 07:10:47 51°13.704 2°55.749 -999 0.024714 0.139428 -1.10504
2009-04-22 07:10:53 51°13.705 2°55.747 -999 0.024714 0.139428 -1.10504
2009-04-22 07:10:57 51°13.705 2°55.747 -999 0.024714 0.139428 -1.10504
2009-04-22 07:11:02 51°13.706 2°55.746 -999 0.024714 0.139431 -1.10504
2009-04-22 07:11:07 51°13.706 2°55.747 -999 0.024714 0.139433 -1.10504
2009-04-22 07:11:12 51°13.707 2°55.747 -999 0.024714 0.139436 -1.10504
2009-04-22 07:11:17 51°13.707 2°55.748 -999 0.024714 0.139436 -1.10504
2009-04-22 07:11:22 51°13.708 2°55.749 -999 0.024714 0.139438 -1.10504
2009-04-22 07:11:26 51°13.708 2°55.751 -999 0.024714 0.139441 -1.10504
2009-04-22 07:11:31 51°13.709 2°55.752 -999 0.024714 0.139441 -1.10504
2009-04-22 07:11:36 51°13.71 2°55.752 -999 0.024714 0.139441 -1.139864
2009-04-22 07:11:41 51°13.71 2°55.752 -999 0.024714 0.139443 -1.10504
2009-04-22 07:11:46 51°13.71 2°55.751 -999 0.024714 0.139443 -1.10504
2009-04-22 07:11:51 51°13.71 2°55.75 -999 0.024714 0.139443 -1.139864
2009-04-22 07:11:55 51°13.71 2°55.749 -999 0.024714 0.139443 -1.10504
2009-04-22 07:12:01 51°13.709 2°55.747 -999 0.024714 0.139443 -1.10504
2009-04-22 07:12:05 51°13.708 2°55.746 -999 0.024714 0.139443 -1.139864
2009-04-22 07:12:10 51°13.707 2°55.743 -999 0.024714 0.139443 -1.10504
2009-04-22 07:12:15 51°13.706 2°55.742 -999 0.024714 0.139443 -1.10504
2009-04-22 07:12:20 51°13.705 2°55.74 -999 0.024714 0.139443 -1.10504
2009-04-22 07:12:26 51°13.704 2°55.738 -999 0.024714 0.139441 -1.10504
2009-04-22 07:12:30 51°13.704 2°55.737 -999 0.024714 0.139438 -1.10504
2009-04-22 07:12:35 51°13.705 2°55.737 -999 0.024714 0.139443 -1.10504
2009-04-22 07:12:40 51°13.706 2°55.737 -999 0.024714 0.139445 -1.10504
2009-04-22 07:12:46 51°13.709 2°55.737 -999 0.024714 0.139445 -1.10504
2009-04-22 07:12:50 51°13.711 2°55.737 -999 0.024714 0.13945 -1.10504
2009-04-22 07:12:55 51°13.714 2°55.737 -999 0.024714 0.139453 -1.10504
2009-04-22 07:13:00 51°13.717 2°55.736 -999 0.024714 0.139455 -1.10504
2009-04-22 07:13:05 51°13.721 2°55.734 -999 0.024714 0.13946 -1.10504
2009-04-22 07:13:10 51°13.724 2°55.731 -999 0.024714 0.13946 -1.10504
2009-04-22 07:13:15 51°13.728 2°55.728 -999 0.024714 0.13946 -1.10504
2009-04-22 07:13:20 51°13.733 2°55.723 -999 0.024714 0.13946 -1.10504
2009-04-22 07:13:25 51°13.738 2°55.718 -999 0.024714 0.139458 -1.10504
2009-04-22 07:13:30 51°13.743 2°55.712 -999 0.024714 0.139453 -1.10504
2009-04-22 07:13:35 51°13.749 2°55.706 -999 0.024714 0.139453 -1.10504
2009-04-22 07:13:40 51°13.756 2°55.698 -999 0.024714 0.13945 -1.10504
2009-04-22 07:13:45 51°13.762 2°55.691 -999 0.024714 0.13945 -1.10504
2009-04-22 07:13:50 51°13.769 2°55.684 -999 0.024714 0.13945 -1.10504
2009-04-22 07:13:55 51°13.777 2°55.677 -999 0.024714 0.13945 -1.10504
2009-04-22 07:14:00 51°13.784 2°55.669 -999 0.024714 0.139448 -1.10504
2009-04-22 07:14:05 51°13.792 2°55.662 -999 0.024714 0.13945 -1.10504
2009-04-22 07:14:10 51°13.8 2°55.654 -999 0.024714 0.139453 -1.10504
2009-04-22 07:14:15 51°13.809 2°55.646 -999 0.024714 0.139453 -1.10504
2009-04-22 07:14:20 51°13.817 2°55.639 -999 0.024714 0.139453 -1.10504
2009-04-22 07:14:25 51°13.826 2°55.632 -999 0.024714 0.139453 -1.10504
2009-04-22 07:14:30 51°13.835 2°55.625 -999 0.024714 0.139455 -1.10504
2009-04-22 07:14:35 51°13.844 2°55.618 -999 0.024714 0.139455 -1.10504
2009-04-22 07:14:40 51°13.853 2°55.611 -999 0.024714 0.139458 -1.10504
2009-04-22 07:14:45 51°13.862 2°55.604 -999 0.024714 0.139458 -1.10504
2009-04-22 07:14:50 51°13.872 2°55.597 -999 0.024714 0.139455 -1.10504
2009-04-22 07:14:55 51°13.881 2°55.59 -999 0.024714 0.139458 -1.10504
2009-04-22 07:15:00 51°13.891 2°55.583 -999 0.024714 0.139455 -1.10504
2009-04-22 07:15:06 51°13.903 2°55.574 -999 0.024714 0.139458 -1.10504
2009-04-22 07:15:10 51°13.91 2°55.568 -999 0.024714 0.139458 -1.10504
2009-04-22 07:15:15 51°13.92 2°55.561 -999 0.024714 0.139458 -1.10504
2009-04-22 07:15:20 51°13.93 2°55.554 -999 0.024714 0.139458 -1.139864
2009-04-22 07:15:25 51°13.941 2°55.547 -999 0.024714 0.139458 -1.10504
2009-04-22 07:15:30 51°13.951 2°55.541 -999 0.024714 0.13946 -1.10504
2009-04-22 07:15:35 51°13.961 2°55.534 -999 0.024714 0.13946 -1.10504
2009-04-22 07:15:40 51°13.972 2°55.526 -999 0.024714 0.13946 -1.10504
2009-04-22 07:15:45 51°13.982 2°55.519 -999 0.024714 0.13946 -1.10504
2009-04-22 07:15:50 51°13.992 2°55.512 -999 0.024714 0.13946 -1.10504
2009-04-22 07:15:55 51°14.003 2°55.505 -999 0.024714 0.139463 -1.10504
2009-04-22 07:15:59 51°14.011 2°55.499 -999 0.024714 0.139463 -1.10504
2009-04-22 07:16:05 51°14.024 2°55.49 -999 0.024714 0.139463 -1.10504
2009-04-22 07:16:10 51°14.034 2°55.482 -999 0.024714 0.139463 -1.10504
2009-04-22 07:16:15 51°14.044 2°55.474 -999 0.024714 0.139463 -1.10504
2009-04-22 07:16:20 51°14.055 2°55.466 -999 0.024714 0.139463 -1.10504
2009-04-22 07:16:25 51°14.065 2°55.458 -999 0.024714 0.139463 -1.10504
2009-04-22 07:16:30 51°14.076 2°55.451 -999 0.024714 0.139465 -1.10504
2009-04-22 07:16:35 51°14.086 2°55.443 -999 0.024714 0.139465 -1.10504
2009-04-22 07:16:40 51°14.097 2°55.435 -999 0.024714 0.139465 -1.10504
2009-04-22 07:16:45 51°14.107 2°55.426 -999 0.024714 0.139465 -1.10504
2009-04-22 07:16:50 51°14.118 2°55.418 -999 0.024714 0.139465 -1.10504
2009-04-22 07:16:55 51°14.128 2°55.409 -999 0.024714 0.139465 -1.10504
2009-04-22 07:17:00 51°14.139 2°55.401 -999 0.024714 0.139465 -1.10504
2009-04-22 07:17:05 51°14.149 2°55.392 -999 0.024714 0.139467 -1.10504
2009-04-22 07:17:10 51°14.159 2°55.383 -999 0.024714 0.139467 -1.10504
2009-04-22 07:17:15 51°14.169 2°55.373 -999 0.024714 0.139467 -1.10504
2009-04-22 07:17:20 51°14.179 2°55.362 -999 0.024714 0.139467 -1.10504
2009-04-22 07:17:25 51°14.189 2°55.352 -999 0.024714 0.13947 -1.10504
2009-04-22 07:17:30 51°14.198 2°55.341 -999 0.024714 0.13947 -1.10504
2009-04-22 07:17:35 51°14.208 2°55.33 -999 0.024714 0.13947 -1.10504
2009-04-22 07:17:40 51°14.217 2°55.318 -999 0.024714 0.13947 -1.10504
2009-04-22 07:17:46 51°14.228 2°55.304 -999 0.024714 0.13947 -1.10504
2009-04-22 07:17:50 51°14.235 2°55.294 -999 0.024714 0.139472 -1.10504
2009-04-22 07:17:55 51°14.244 2°55.281 -999 0.024714 0.139472 -1.10504
2009-04-22 07:18:00 51°14.253 2°55.268 -999 0.024714 0.139472 -1.10504
2009-04-22 07:18:05 51°14.261 2°55.254 -999 0.024714 0.139472 -1.10504
2009-04-22 07:18:10 51°14.269 2°55.24 -999 0.024714 0.139472 -1.10504
2009-04-22 07:18:15 51°14.277 2°55.226 -999 0.024714 0.139472 -1.10504
2009-04-22 07:18:19 51°14.284 2°55.214 -999 0.024714 0.139472 -1.10504
2009-04-22 07:18:25 51°14.293 2°55.197 -999 0.024714 0.139472 -1.10504
2009-04-22 07:18:30 51°14.301 2°55.182 -999 0.024714 0.139472 -1.10504
2009-04-22 07:18:35 51°14.309 2°55.167 -999 0.024714 0.139475 -1.10504
2009-04-22 07:18:40 51°14.316 2°55.151 -999 0.024714 0.139475 -1.10504
2009-04-22 07:18:45 51°14.324 2°55.136 -999 0.024714 0.139475 -1.10504
2009-04-22 07:18:50 51°14.332 2°55.12 -999 0.024714 0.139472 -1.10504
2009-04-22 07:18:55 51°14.34 2°55.104 -999 0.024714 0.139475 -1.10504
2009-04-22 07:19:00 51°14.347 2°55.089 -999 0.024714 0.139475 -1.10504
2009-04-22 07:19:05 51°14.355 2°55.073 -999 0.024714 0.139475 -1.10504
2009-04-22 07:19:10 51°14.363 2°55.057 -999 0.024714 0.139475 -1.10504
2009-04-22 07:19:15 51°14.37 2°55.041 -999 0.024714 0.139475 -1.10504
2009-04-22 07:19:20 51°14.377 2°55.025 -999 0.024714 0.139477 -1.10504
2009-04-22 07:19:25 51°14.384 2°55.008 -999 0.024714 0.139477 -1.10504
2009-04-22 07:19:30 51°14.391 2°54.991 -999 0.024714 0.139477 -1.10504
2009-04-22 07:19:35 51°14.399 2°54.974 -999 0.024714 0.139477 -1.10504
2009-04-22 07:19:40 51°14.407 2°54.958 -999 0.024714 0.139477 -1.10504
2009-04-22 07:19:45 51°14.415 2°54.942 -999 0.024714 0.139477 -1.10504
2009-04-22 07:19:50 51°14.424 2°54.926 -999 0.024714 0.139477 -1.10504
2009-04-22 07:19:55 51°14.433 2°54.911 -999 0.024714 0.139477 -1.10504
2009-04-22 07:20:00 51°14.442 2°54.895 -999 0.024714 0.139477 -1.10504
2009-04-22 07:20:05 51°14.452 2°54.879 -999 0.024714 0.13948 -1.10504
2009-04-22 07:20:10 51°14.461 2°54.863 -999 0.024714 0.13948 -1.10504
2009-04-22 07:20:15 51°14.471 2°54.847 -999 0.024714 0.13948 -1.10504
2009-04-22 07:20:20 51°14.48 2°54.831 -999 0.024714 0.139482 -1.10504
2009-04-22 07:20:25 51°14.49 2°54.816 -999 0.024714 0.139482 -1.10504
2009-04-22 07:20:30 51°14.501 2°54.802 -999 0.024714 0.13948 -1.10504
2009-04-22 07:20:35 51°14.511 2°54.787 -999 0.024714 0.139482 -1.10504
2009-04-22 07:20:40 51°14.522 2°54.773 -999 0.024714 0.139485 -1.10504
2009-04-22 07:20:45 51°14.533 2°54.759 -999 0.024714 0.139485 -1.10504
2009-04-22 07:20:50 51°14.543 2°54.744 -999 0.024714 0.139485 -1.10504
2009-04-22 07:20:55 51°14.554 2°54.73 -999 0.024714 0.139487 -1.10504
2009-04-22 07:20:59 51°14.563 2°54.719 -999 0.024714 0.139487 -1.10504
2009-04-22 07:21:05 51°14.576 2°54.702 -999 0.024714 0.139487 -1.10504
2009-04-22 07:21:10 51°14.587 2°54.688 -999 0.024714 0.139487 -1.10504
2009-04-22 07:21:15 51°14.598 2°54.674 -999 0.024714 0.139487 -1.10504
2009-04-22 07:21:20 51°14.609 2°54.661 -999 0.024714 0.13949 -1.10504
2009-04-22 07:21:25 51°14.62 2°54.648 -999 0.024714 0.13949 -1.10504
2009-04-22 07:21:30 51°14.631 2°54.635 -999 0.024714 0.13949 -1.10504
2009-04-22 07:21:35 51°14.643 2°54.623 -999 0.024714 0.139487 -1.10504
2009-04-22 07:21:41 51°14.658 2°54.61 -999 0.024714 0.139487 -1.10504
2009-04-22 07:21:45 51°14.667 2°54.602 -999 0.024714 0.139487 -1.10504
2009-04-22 07:21:50 51°14.68 2°54.593 -999 0.024714 0.139487 -1.10504
2009-04-22 07:21:55 51°14.692 2°54.585 -999 0.024714 0.13949 -1.10504
2009-04-22 07:22:00 51°14.705 2°54.576 -999 0.024714 0.139492 -1.10504
2009-04-22 07:22:05 51°14.717 2°54.566 -999 0.024714 0.139492 -1.10504
2009-04-22 07:22:10 51°14.729 2°54.556 -999 0.024714 0.139497 -1.10504
2009-04-22 07:22:15 51°14.741 2°54.546 -999 0.024714 0.139497 -1.10504
2009-04-22 07:22:20 51°14.753 2°54.536 -999 0.024714 0.139497 -1.10504
2009-04-22 07:22:26 51°14.768 2°54.524 -999 0.024714 0.139497 -1.10504
2009-04-22 07:22:30 51°14.777 2°54.515 -999 0.024714 0.139497 -1.10504
2009-04-22 07:22:35 51°14.789 2°54.505 -999 0.024714 0.139497 -1.10504
2009-04-22 07:22:40 51°14.802 2°54.495 -999 0.024714 0.139499 -1.10504
2009-04-22 07:22:45 51°14.814 2°54.484 -999 0.024714 0.139499 -1.10504
2009-04-22 07:22:50 51°14.826 2°54.474 -999 0.024714 0.139499 -1.10504
2009-04-22 07:22:55 51°14.838 2°54.463 -999 0.024714 0.139499 -1.10504
2009-04-22 07:23:00 51°14.849 2°54.452 -999 0.024714 0.139499 -1.10504
2009-04-22 07:23:05 51°14.861 2°54.441 -999 0.024714 0.139502 -1.10504
2009-04-22 07:23:10 51°14.873 2°54.43 -999 0.024714 0.139502 -1.10504
2009-04-22 07:23:15 51°14.885 2°54.419 -999 0.024714 0.139502 -1.10504
2009-04-22 07:23:19 51°14.894 2°54.41 -999 0.024714 0.139502 -1.10504
2009-04-22 07:23:25 51°14.908 2°54.396 -999 0.024714 0.139504 -1.10504
2009-04-22 07:23:30 51°14.92 2°54.385 -999 0.024714 0.139504 -1.10504
2009-04-22 07:23:35 51°14.931 2°54.373 -999 0.024714 0.139504 -1.10504
2009-04-22 07:23:40 51°14.943 2°54.36 -999 0.024714 0.139504 -1.10504
2009-04-22 07:23:45 51°14.955 2°54.348 -999 0.024714 0.139504 -1.10504
2009-04-22 07:23:50 51°14.966 2°54.335 -999 0.024714 0.139504 -1.10504
2009-04-22 07:23:55 51°14.979 2°54.322 -999 0.024714 0.139504 -1.139864
2009-04-22 07:24:01 51°14.993 2°54.306 -999 0.024714 0.139504 -1.10504
2009-04-22 07:24:05 51°15.003 2°54.295 -999 0.024714 0.139504 -1.10504
2009-04-22 07:24:10 51°15.016 2°54.282 -999 0.024714 0.139507 -1.10504
2009-04-22 07:24:15 51°15.029 2°54.269 -999 0.024714 0.139507 -1.10504
2009-04-22 07:24:20 51°15.042 2°54.255 -999 0.024714 0.139507 -1.10504
2009-04-22 07:24:25 51°15.055 2°54.242 -999 0.024714 0.139509 -1.10504
2009-04-22 07:24:30 51°15.068 2°54.228 -999 0.024714 0.139509 -1.10504
2009-04-22 07:24:35 51°15.081 2°54.215 -999 0.024714 0.139512 -1.10504
2009-04-22 07:24:40 51°15.093 2°54.201 -999 0.024714 0.139516 -1.10504
2009-04-22 07:24:45 51°15.105 2°54.189 -999 0.024714 0.139516 -1.10504
2009-04-22 07:24:50 51°15.116 2°54.178 -999 0.024714 0.139516 -1.10504
2009-04-22 07:24:55 51°15.126 2°54.167 -999 0.024714 0.139519 -1.10504
2009-04-22 07:25:00 51°15.135 2°54.157 -999 0.024714 0.139516 -1.10504
2009-04-22 07:25:05 51°15.144 2°54.147 -999 0.024714 0.139516 -1.10504
2009-04-22 07:25:10 51°15.152 2°54.138 -999 0.024714 0.139516 -1.10504
2009-04-22 07:25:15 51°15.161 2°54.131 -999 0.024714 0.139516 -1.10504
2009-04-22 07:25:20 51°15.168 2°54.123 -999 0.024714 0.139516 -1.10504
2009-04-22 07:25:25 51°15.175 2°54.115 -999 0.024714 0.139516 -1.10504
2009-04-22 07:25:30 51°15.182 2°54.108 -999 0.024714 0.139516 -1.10504
2009-04-22 07:25:35 51°15.189 2°54.101 -999 0.024714 0.139519 -1.10504
2009-04-22 07:25:40 51°15.196 2°54.095 -999 0.024714 0.139519 -1.10504
2009-04-22 07:25:45 51°15.202 2°54.089 -999 0.024714 0.139519 -1.10504
2009-04-22 07:25:50 51°15.208 2°54.082 -999 0.024714 0.139519 -1.10504
2009-04-22 07:25:55 51°15.214 2°54.076 -999 0.024714 0.139519 -1.10504
2009-04-22 07:26:00 51°15.22 2°54.07 -999 0.024714 0.139519 -1.10504
2009-04-22 07:26:05 51°15.226 2°54.064 -999 0.024714 0.139521 -1.070216
2009-04-22 07:26:10 51°15.231 2°54.058 -999 0.024714 0.139521 -1.10504
2009-04-22 07:26:15 51°15.236 2°54.052 -999 0.024714 0.139521 -1.10504
2009-04-22 07:26:20 51°15.242 2°54.046 -999 0.024714 0.139521 -1.10504
2009-04-22 07:26:26 51°15.248 2°54.04 -999 0.024714 0.139524 -1.10504
2009-04-22 07:26:30 51°15.252 2°54.035 -999 0.024714 0.139524 -1.10504
2009-04-22 07:26:35 51°15.257 2°54.029 -999 0.024714 0.139524 -1.10504
2009-04-22 07:26:40 51°15.262 2°54.024 -999 0.024714 0.139524 -1.10504
2009-04-22 07:26:45 51°15.267 2°54.018 -999 0.024714 0.139524 -1.10504
2009-04-22 07:26:50 51°15.271 2°54.012 -999 0.024714 0.139524 -1.10504
2009-04-22 07:26:55 51°15.276 2°54.007 -999 0.024714 0.139524 -1.10504
2009-04-22 07:27:00 51°15.28 2°54.001 -999 0.024714 0.139526 -1.070216
2009-04-22 07:27:05 51°15.285 2°53.995 -999 0.024714 0.139526 -1.10504
2009-04-22 07:27:10 51°15.289 2°53.988 -999 0.024714 0.139529 -1.10504
2009-04-22 07:27:15 51°15.293 2°53.982 -999 0.024714 0.139529 -1.10504
2009-04-22 07:27:20 51°15.296 2°53.974 -999 0.024714 0.139531 -1.10504
2009-04-22 07:27:25 51°15.299 2°53.966 -999 0.024714 0.139536 -1.070216
2009-04-22 07:27:30 51°15.302 2°53.957 -999 0.024611 0.138957 -1.10504
2009-04-22 07:27:35 51°15.303 2°53.948 -999 0.024611 0.138962 -1.10504
2009-04-22 07:27:40 51°15.305 2°53.938 -999 0.024611 0.138962 -1.10504
2009-04-22 07:27:45 51°15.305 2°53.928 -999 0.024611 0.138962 -1.10504
2009-04-22 07:27:50 51°15.304 2°53.918 -999 0.024611 0.138964 -1.10504
2009-04-22 07:27:55 51°15.303 2°53.908 -999 0.024611 0.138964 -1.10504
2009-04-22 07:28:00 51°15.302 2°53.898 -999 0.024714 0.139548 -1.10504
2009-04-22 07:28:05 51°15.299 2°53.888 -999 0.024611 0.138966 -1.10504
2009-04-22 07:28:10 51°15.296 2°53.879 -999 0.024611 0.138964 -1.10504
2009-04-22 07:28:15 51°15.293 2°53.87 -999 0.024611 0.138964 -1.10504
2009-04-22 07:28:20 51°15.288 2°53.862 -999 0.024611 0.138966 -1.10504
2009-04-22 07:28:25 51°15.284 2°53.854 -999 0.024611 0.138964 -1.10504
2009-04-22 07:28:30 51°15.279 2°53.847 -999 0.024611 0.138964 -1.10504
2009-04-22 07:28:35 51°15.273 2°53.841 -999 0.024611 0.138966 -1.10504
2009-04-22 07:28:40 51°15.267 2°53.836 -999 0.024611 0.138962 -1.10504
2009-04-22 07:28:45 51°15.259 2°53.83 -999 0.024611 0.138962 -1.10504
2009-04-22 07:28:50 51°15.251 2°53.826 -999 0.024611 0.138959 -1.10504
2009-04-22 07:28:55 51°15.242 2°53.822 -999 0.024611 0.138959 -1.10504
2009-04-22 07:29:00 51°15.233 2°53.819 -999 0.024611 0.138959 -1.10504
2009-04-22 07:29:06 51°15.22 2°53.816 -999 0.024611 0.138957 -1.10504
2009-04-22 07:29:10 51°15.211 2°53.815 -999 0.024611 0.138954 -1.10504
2009-04-22 07:29:15 51°15.2 2°53.814 -999 0.024611 0.138954 -1.10504
2009-04-22 07:29:20 51°15.187 2°53.813 -999 0.024611 0.138954 -1.10504
2009-04-22 07:29:25 51°15.175 2°53.813 -999 0.024611 0.138954 -1.070216
2009-04-22 07:29:30 51°15.162 2°53.813 -999 0.024611 0.138954 -1.10504
2009-04-22 07:29:35 51°15.148 2°53.813 -999 0.024611 0.138957 -1.10504
2009-04-22 07:29:40 51°15.135 2°53.815 -999 0.024611 0.138957 -1.10504
2009-04-22 07:29:45 51°15.12 2°53.816 -999 0.024611 0.138957 -1.10504
2009-04-22 07:29:50 51°15.106 2°53.818 -999 0.024611 0.138957 -1.10504
2009-04-22 07:29:55 51°15.091 2°53.821 -999 0.024611 0.138959 -1.10504
2009-04-22 07:30:00 51°15.076 2°53.824 -999 0.024611 0.138962 -1.10504
2009-04-22 07:30:05 51°15.061 2°53.826 -999 0.024611 0.138962 -1.10504
2009-04-22 07:30:10 51°15.045 2°53.83 -999 0.024611 0.138962 -1.070216
2009-04-22 07:30:15 51°15.03 2°53.834 -999 0.024611 0.138962 -1.070216
2009-04-22 07:30:21 51°15.011 2°53.838 -999 0.024611 0.138964 -1.10504
2009-04-22 07:30:25 51°14.998 2°53.841 -999 0.024611 0.138964 -1.10504
2009-04-22 07:30:30 51°14.982 2°53.845 -999 0.024611 0.138962 -1.070216
2009-04-22 07:30:35 51°14.966 2°53.849 -999 0.024611 0.138964 -1.10504
2009-04-22 07:30:40 51°14.95 2°53.853 -999 0.024611 0.138969 -1.10504
2009-04-22 07:30:45 51°14.935 2°53.858 -999 0.024611 0.138969 -1.10504
2009-04-22 07:30:50 51°14.919 2°53.863 -999 0.024611 0.138969 -1.10504
2009-04-22 07:30:55 51°14.904 2°53.87 -999 0.024611 0.138971 -1.10504
2009-04-22 07:31:00 51°14.888 2°53.876 -999 0.024611 0.138971 -1.10504
2009-04-22 07:31:05 51°14.873 2°53.884 -999 0.024611 0.138971 -1.10504
2009-04-22 07:31:10 51°14.857 2°53.891 -999 0.024611 0.138974 -1.10504
2009-04-22 07:31:15 51°14.842 2°53.898 -999 0.024611 0.138974 -1.10504
2009-04-22 07:31:20 51°14.826 2°53.906 -999 0.024714 0.139553 -1.10504
2009-04-22 07:31:25 51°14.811 2°53.913 -999 0.024611 0.138974 -1.10504
2009-04-22 07:31:30 51°14.795 2°53.922 -999 0.024714 0.139553 -1.10504
2009-04-22 07:31:35 51°14.779 2°53.93 -999 0.024714 0.139553 -1.10504
2009-04-22 07:31:40 51°14.763 2°53.938 -999 0.024714 0.139553 -1.10504
2009-04-22 07:31:45 51°14.747 2°53.946 -999 0.024714 0.139553 -1.10504
2009-04-22 07:31:50 51°14.73 2°53.954 -999 0.024714 0.139553 -1.10504
2009-04-22 07:31:55 51°14.714 2°53.96 -999 0.024714 0.139553 -1.10504
2009-04-22 07:32:00 51°14.697 2°53.967 -999 0.024714 0.139556 -1.10504
2009-04-22 07:32:05 51°14.68 2°53.972 -999 0.024714 0.139556 -1.10504
2009-04-22 07:32:10 51°14.663 2°53.977 -999 0.024714 0.139556 -1.10504
2009-04-22 07:32:15 51°14.646 2°53.98 -999 0.024714 0.139556 -1.10504
2009-04-22 07:32:20 51°14.629 2°53.982 -999 0.024714 0.139556 -1.10504
2009-04-22 07:32:25 51°14.612 2°53.983 -999 0.024714 0.139556 -1.10504
2009-04-22 07:32:30 51°14.595 2°53.984 -999 0.024714 0.139553 -1.10504
2009-04-22 07:32:35 51°14.577 2°53.982 -999 0.024714 0.139558 -1.10504
2009-04-22 07:32:40 51°14.56 2°53.98 -999 0.024714 0.139556 -1.070216
2009-04-22 07:32:45 51°14.543 2°53.976 -999 0.024714 0.139556 -1.070216
2009-04-22 07:32:50 51°14.527 2°53.97 -999 0.024714 0.139556 -1.10504
2009-04-22 07:32:55 51°14.51 2°53.964 -999 0.024714 0.139558 -1.10504
2009-04-22 07:33:00 51°14.494 2°53.957 -999 0.024714 0.139558 -1.10504
2009-04-22 07:33:05 51°14.478 2°53.947 -999 0.024714 0.139561 -1.10504
2009-04-22 07:33:10 51°14.462 2°53.937 -999 0.024714 0.139561 -1.10504
2009-04-22 07:33:15 51°14.446 2°53.925 -999 0.024714 0.139561 -1.10504
2009-04-22 07:33:20 51°14.431 2°53.914 -999 0.024714 0.139563 -1.10504
2009-04-22 07:33:26 51°14.413 2°53.897 -999 0.024714 0.139563 -1.10504
2009-04-22 07:33:30 51°14.401 2°53.886 -999 0.024714 0.139568 -1.10504
2009-04-22 07:33:35 51°14.386 2°53.873 -999 0.024714 0.139568 -1.10504
2009-04-22 07:33:40 51°14.372 2°53.857 -999 0.024714 0.139568 -1.10504
2009-04-22 07:33:46 51°14.355 2°53.837 -999 0.024714 0.139568 -1.10504
2009-04-22 07:33:50 51°14.345 2°53.823 -999 0.024714 0.13957 -1.10504
2009-04-22 07:33:55 51°14.332 2°53.805 -999 0.024714 0.13957 -1.10504
2009-04-22 07:34:00 51°14.319 2°53.786 -999 0.024714 0.13957 -1.10504
2009-04-22 07:34:05 51°14.306 2°53.768 -999 0.024714 0.139573 -1.070216
2009-04-22 07:34:10 51°14.293 2°53.749 -999 0.024714 0.139575 -1.10504
2009-04-22 07:34:15 51°14.281 2°53.729 -999 0.024714 0.139575 -1.10504
2009-04-22 07:34:20 51°14.268 2°53.71 -999 0.024714 0.139575 -1.10504
2009-04-22 07:34:25 51°14.257 2°53.689 -999 0.024714 0.139575 -1.10504
2009-04-22 07:34:30 51°14.245 2°53.668 -999 0.024714 0.139578 -1.10504
2009-04-22 07:34:35 51°14.234 2°53.647 -999 0.024714 0.139578 -1.10504
2009-04-22 07:34:41 51°14.221 2°53.621 -999 0.024714 0.13958 -1.10504
2009-04-22 07:34:45 51°14.213 2°53.603 -999 0.024714 0.13958 -1.10504
2009-04-22 07:34:50 51°14.202 2°53.581 -999 0.024714 0.139583 -1.10504
2009-04-22 07:34:55 51°14.192 2°53.559 -999 0.024714 0.139585 -1.10504
2009-04-22 07:35:00 51°14.181 2°53.536 -999 0.024714 0.139587 -1.10504
2009-04-22 07:35:05 51°14.171 2°53.514 -999 0.024714 0.139585 -1.10504
2009-04-22 07:35:10 51°14.161 2°53.492 -999 0.024714 0.139587 -1.10504
2009-04-22 07:35:15 51°14.151 2°53.469 -999 0.024714 0.139587 -1.10504
2009-04-22 07:35:21 51°14.139 2°53.442 -999 0.024714 0.13959 -1.10504
2009-04-22 07:35:25 51°14.131 2°53.423 -999 0.024714 0.13959 -1.10504
2009-04-22 07:35:30 51°14.121 2°53.401 -999 0.024714 0.139592 -1.10504
2009-04-22 07:35:35 51°14.11 2°53.378 -999 0.024714 0.139592 -1.10504
2009-04-22 07:35:40 51°14.1 2°53.356 -999 0.024508 0.138428 -1.10504
2009-04-22 07:35:46 51°14.088 2°53.329 -999 0.024508 0.138428 -1.10504
2009-04-22 07:35:50 51°14.079 2°53.311 -999 0.024714 0.139592 -1.10504
2009-04-22 07:35:55 51°14.069 2°53.288 -999 0.024714 0.139595 -1.10504
2009-04-22 07:36:00 51°14.058 2°53.266 -999 0.024714 0.139595 -1.10504
2009-04-22 07:36:05 51°14.048 2°53.243 -999 0.024714 0.139595 -1.10504
2009-04-22 07:36:10 51°14.038 2°53.221 -999 0.024714 0.139595 -1.10504
2009-04-22 07:36:15 51°14.028 2°53.198 -999 0.024714 0.139595 -1.10504
2009-04-22 07:36:20 51°14.018 2°53.175 -999 0.024714 0.139597 -1.10504
2009-04-22 07:36:25 51°14.007 2°53.153 -999 0.024714 0.139597 -1.10504
2009-04-22 07:36:30 51°13.996 2°53.131 -999 0.024714 0.139597 -1.10504
2009-04-22 07:36:35 51°13.986 2°53.108 -999 0.024714 0.139597 -1.10504
2009-04-22 07:36:40 51°13.976 2°53.086 -999 0.024714 0.1396 -1.10504
2009-04-22 07:36:45 51°13.965 2°53.064 -999 0.024714 0.1396 -1.10504
2009-04-22 07:36:50 51°13.955 2°53.042 -999 0.024714 0.1396 -1.10504
2009-04-22 07:36:55 51°13.944 2°53.019 -999 0.024714 0.139602 -1.10504
2009-04-22 07:37:00 51°13.934 2°52.997 -999 0.024714 0.139602 -1.10504
2009-04-22 07:37:05 51°13.923 2°52.975 -999 0.024714 0.139602 -1.10504
2009-04-22 07:37:10 51°13.912 2°52.953 -999 0.024714 0.139605 -1.10504
2009-04-22 07:37:15 51°13.901 2°52.931 -999 0.024714 0.139605 -1.10504
2009-04-22 07:37:21 51°13.889 2°52.904 -999 0.024714 0.139602 -1.10504
2009-04-22 07:37:25 51°13.88 2°52.887 -999 0.024714 0.139605 -1.10504
2009-04-22 07:37:30 51°13.869 2°52.865 -999 0.024714 0.139605 -1.10504
2009-04-22 07:37:35 51°13.858 2°52.843 -999 0.024714 0.139605 -1.10504
2009-04-22 07:37:40 51°13.848 2°52.821 -999 0.024714 0.139605 -1.10504
2009-04-22 07:37:45 51°13.836 2°52.799 -999 0.024714 0.139605 -1.10504
2009-04-22 07:37:50 51°13.826 2°52.777 -999 0.024714 0.139605 -1.10504
2009-04-22 07:37:55 51°13.815 2°52.755 -999 0.024714 0.139607 -1.10504
2009-04-22 07:37:59 51°13.806 2°52.738 -999 0.024714 0.139607 -1.10504
2009-04-22 07:38:05 51°13.793 2°52.711 -999 0.024714 0.13961 -1.10504
2009-04-22 07:38:10 51°13.782 2°52.689 -999 0.024714 0.13961 -1.10504
2009-04-22 07:38:15 51°13.771 2°52.667 -999 0.024714 0.13961 -1.10504
2009-04-22 07:38:20 51°13.76 2°52.646 -999 0.024714 0.13961 -1.10504
2009-04-22 07:38:25 51°13.749 2°52.624 -999 0.024714 0.139612 -1.10504
2009-04-22 07:38:30 51°13.737 2°52.603 -999 0.024714 0.13961 -1.10504
2009-04-22 07:38:35 51°13.727 2°52.581 -999 0.024714 0.139612 -1.10504
2009-04-22 07:38:40 51°13.715 2°52.56 -999 0.024714 0.13961 -1.10504
2009-04-22 07:38:45 51°13.704 2°52.537 -999 0.024714 0.13961 -1.10504
2009-04-22 07:38:50 51°13.693 2°52.516 -999 0.024714 0.139614 -1.10504
2009-04-22 07:38:55 51°13.682 2°52.494 -999 0.024714 0.139612 -1.10504
2009-04-22 07:39:00 51°13.671 2°52.473 -999 0.024714 0.139614 -1.10504
2009-04-22 07:39:05 51°13.66 2°52.451 -999 0.024714 0.139614 -1.10504
2009-04-22 07:39:10 51°13.648 2°52.43 -999 0.024714 0.139614 -1.10504
2009-04-22 07:39:15 51°13.637 2°52.408 -999 0.024714 0.139614 -1.10504
2009-04-22 07:39:20 51°13.626 2°52.386 -999 0.024714 0.139617 -1.10504
2009-04-22 07:39:25 51°13.614 2°52.366 -999 0.024714 0.139617 -1.10504
2009-04-22 07:39:30 51°13.604 2°52.344 -999 0.024714 0.139617 -1.10504
2009-04-22 07:39:35 51°13.594 2°52.323 -999 0.024714 0.139617 -1.10504
2009-04-22 07:39:40 51°13.584 2°52.303 -999 0.024714 0.139619 -1.10504
2009-04-22 07:39:45 51°13.574 2°52.283 -999 0.024714 0.139619 -1.10504
2009-04-22 07:39:50 51°13.565 2°52.263 -999 0.024714 0.139619 -1.10504
2009-04-22 07:39:55 51°13.555 2°52.244 -999 0.024714 0.139619 -1.10504
2009-04-22 07:40:00 51°13.546 2°52.224 -999 0.024714 0.139622 -1.10504
2009-04-22 07:40:05 51°13.537 2°52.205 -999 0.024714 0.139614 -1.10504
2009-04-22 07:40:10 51°13.529 2°52.185 -999 0.024714 0.139619 -1.10504
2009-04-22 07:40:15 51°13.521 2°52.167 -999 0.024714 0.139619 -1.10504
2009-04-22 07:40:20 51°13.514 2°52.147 -999 0.024714 0.139614 -1.10504
2009-04-22 07:40:26 51°13.505 2°52.125 -999 0.024714 0.139619 -1.10504
2009-04-22 07:40:30 51°13.5 2°52.109 -999 0.024714 0.139619 -1.10504
2009-04-22 07:40:35 51°13.493 2°52.091 -999 0.024714 0.139619 -1.10504
2009-04-22 07:40:40 51°13.487 2°52.072 -999 0.024714 0.139619 -1.10504
2009-04-22 07:40:45 51°13.481 2°52.053 -999 0.024714 0.139619 -1.10504
2009-04-22 07:40:50 51°13.475 2°52.035 -999 0.024714 0.139619 -1.10504
2009-04-22 07:40:55 51°13.47 2°52.016 -999 0.024714 0.139622 -1.10504
2009-04-22 07:41:00 51°13.464 2°51.999 -999 0.024714 0.139622 -1.10504
2009-04-22 07:41:05 51°13.458 2°51.981 -999 0.024714 0.139622 -1.10504
2009-04-22 07:41:10 51°13.453 2°51.963 -999 0.024714 0.139622 -1.10504
2009-04-22 07:41:15 51°13.448 2°51.946 -999 0.024714 0.139622 -1.10504
2009-04-22 07:41:20 51°13.442 2°51.929 -999 0.024714 0.139624 -1.10504
2009-04-22 07:41:25 51°13.437 2°51.912 -999 0.024714 0.139624 -1.10504
2009-04-22 07:41:30 51°13.431 2°51.895 -999 0.024714 0.139624 -1.10504
2009-04-22 07:41:35 51°13.426 2°51.878 -999 0.024714 0.139624 -1.10504
2009-04-22 07:41:40 51°13.421 2°51.862 -999 0.024714 0.139624 -1.10504
2009-04-22 07:41:45 51°13.416 2°51.845 -999 0.024714 0.139624 -1.10504
2009-04-22 07:41:50 51°13.411 2°51.828 -999 0.024714 0.139624 -1.10504
2009-04-22 07:41:55 51°13.406 2°51.812 -999 0.024714 0.139624 -1.070216
2009-04-22 07:42:01 51°13.4 2°51.792 -999 0.024714 0.139624 -1.10504
2009-04-22 07:42:05 51°13.396 2°51.779 -999 0.024714 0.139627 -1.10504
2009-04-22 07:42:10 51°13.391 2°51.763 -999 0.024714 0.139627 -1.10504
2009-04-22 07:42:15 51°13.387 2°51.747 -999 0.024714 0.139627 -1.10504
2009-04-22 07:42:20 51°13.382 2°51.732 -999 0.024714 0.139624 -1.10504
2009-04-22 07:42:26 51°13.376 2°51.713 -999 0.024714 0.139627 -1.10504
2009-04-22 07:42:30 51°13.372 2°51.701 -999 0.024714 0.139627 -1.10504
2009-04-22 07:42:35 51°13.368 2°51.686 -999 0.024714 0.139627 -1.10504
2009-04-22 07:42:39 51°13.364 2°51.675 -999 0.024714 0.139627 -1.10504
2009-04-22 07:42:46 51°13.358 2°51.654 -999 0.024714 0.139627 -1.10504
2009-04-22 07:42:50 51°13.354 2°51.642 -999 0.024714 0.139627 -1.10504
2009-04-22 07:42:55 51°13.35 2°51.628 -999 0.024714 0.139627 -1.10504
2009-04-22 07:43:00 51°13.345 2°51.614 -999 0.024714 0.139627 -1.10504
2009-04-22 07:43:05 51°13.341 2°51.6 -999 0.024714 0.139627 -1.10504
2009-04-22 07:43:10 51°13.337 2°51.586 -999 0.024714 0.139627 -1.10504
2009-04-22 07:43:15 51°13.332 2°51.572 -999 0.024714 0.139627 -1.10504
2009-04-22 07:43:20 51°13.328 2°51.558 -999 0.024714 0.139629 -1.10504
2009-04-22 07:43:25 51°13.324 2°51.545 -999 0.024714 0.139629 -1.10504
2009-04-22 07:43:30 51°13.32 2°51.533 -999 0.024714 0.139629 -1.10504
2009-04-22 07:43:35 51°13.315 2°51.52 -999 0.024714 0.139629 -1.070216
2009-04-22 07:43:40 51°13.312 2°51.508 -999 0.024714 0.139629 -1.10504
2009-04-22 07:43:45 51°13.308 2°51.497 -999 0.024714 0.139629 -1.10504
2009-04-22 07:43:50 51°13.304 2°51.485 -999 0.024714 0.139629 -1.10504
2009-04-22 07:43:55 51°13.3 2°51.474 -999 0.024714 0.139629 -1.10504
2009-04-22 07:44:00 51°13.297 2°51.463 -999 0.024714 0.139629 -1.10504
2009-04-22 07:44:05 51°13.293 2°51.452 -999 0.024714 0.139629 -1.10504
2009-04-22 07:44:10 51°13.29 2°51.441 -999 0.024714 0.139632 -1.10504
2009-04-22 07:44:15 51°13.286 2°51.43 -999 0.024714 0.139632 -1.10504
2009-04-22 07:44:20 51°13.283 2°51.42 -999 0.024714 0.139629 -1.10504
2009-04-22 07:44:25 51°13.28 2°51.409 -999 0.024714 0.139632 -1.10504
2009-04-22 07:44:30 51°13.276 2°51.399 -999 0.024714 0.139632 -1.10504
2009-04-22 07:44:35 51°13.273 2°51.389 -999 0.024714 0.139632 -1.10504
2009-04-22 07:44:40 51°13.27 2°51.379 -999 0.024714 0.139632 -1.10504
2009-04-22 07:44:46 51°13.266 2°51.368 -999 0.024714 0.139632 -1.10504
2009-04-22 07:44:50 51°13.264 2°51.361 -999 0.024714 0.139632 -1.10504
2009-04-22 07:44:55 51°13.261 2°51.352 -999 0.024714 0.139634 -1.10504
2009-04-22 07:45:00 51°13.258 2°51.344 -999 0.024714 0.139632 -1.10504
2009-04-22 07:45:05 51°13.256 2°51.335 -999 0.024714 0.139634 -1.10504
2009-04-22 07:45:10 51°13.253 2°51.327 -999 0.024714 0.139632 -1.10504
2009-04-22 07:45:15 51°13.251 2°51.32 -999 0.024714 0.139632 -1.10504
2009-04-22 07:45:20 51°13.249 2°51.313 -999 0.024714 0.139634 -1.10504
2009-04-22 07:45:25 51°13.247 2°51.306 -999 0.024714 0.139634 -1.070216
2009-04-22 07:45:30 51°13.245 2°51.3 -999 0.024714 0.139634 -1.10504
2009-04-22 07:45:35 51°13.244 2°51.294 -999 0.024714 0.139634 -1.10504
2009-04-22 07:45:40 51°13.242 2°51.289 -999 0.024714 0.139634 -1.10504
2009-04-22 07:45:45 51°13.241 2°51.284 -999 0.024714 0.139634 -1.10504
2009-04-22 07:45:50 51°13.24 2°51.28 -999 0.024714 0.139634 -1.10504
2009-04-22 07:45:55 51°13.239 2°51.277 -999 0.024714 0.139634 -1.10504
2009-04-22 07:46:00 51°13.238 2°51.274 -999 0.024714 0.139634 -1.10504
2009-04-22 07:46:05 51°13.237 2°51.272 -999 0.024714 0.139637 -1.070216
2009-04-22 07:46:10 51°13.236 2°51.27 -999 0.024714 0.139637 -1.10504
2009-04-22 07:46:15 51°13.235 2°51.269 -999 0.024714 0.139637 -1.10504
2009-04-22 07:46:21 51°13.234 2°51.267 -999 0.024714 0.139637 -1.10504
2009-04-22 07:46:25 51°13.233 2°51.267 -999 0.024714 0.139639 -1.10504
2009-04-22 07:46:30 51°13.232 2°51.265 -999 0.024714 0.139639 -1.10504
2009-04-22 07:46:35 51°13.232 2°51.264 -999 0.024611 0.139059 -1.10504
2009-04-22 07:46:40 51°13.231 2°51.263 -999 0.024714 0.139641 -1.10504
2009-04-22 07:46:45 51°13.23 2°51.262 -999 0.024714 0.139641 -1.10504
2009-04-22 07:46:50 51°13.229 2°51.261 -999 0.024611 0.139059 -1.10504
2009-04-22 07:46:55 51°13.228 2°51.26 -999 0.024714 0.139644 -1.10504
2009-04-22 07:46:59 51°13.227 2°51.259 -999 0.024714 0.139644 -1.10504
2009-04-22 07:47:05 51°13.225 2°51.258 -999 0.024714 0.139644 -1.10504
2009-04-22 07:47:10 51°13.225 2°51.256 -999 0.024714 0.139644 -1.10504
2009-04-22 07:47:15 51°13.223 2°51.255 -999 0.024714 0.139644 -1.10504
2009-04-22 07:47:20 51°13.222 2°51.254 -999 0.024714 0.139646 -1.10504
2009-04-22 07:47:25 51°13.221 2°51.253 -999 0.024714 0.139646 -1.10504
2009-04-22 07:47:30 51°13.22 2°51.252 -999 0.024714 0.139646 -1.10504
2009-04-22 07:47:35 51°13.219 2°51.251 -999 0.024714 0.139646 -1.10504
2009-04-22 07:47:40 51°13.218 2°51.25 -999 0.024714 0.139646 -1.10504
2009-04-22 07:47:45 51°13.217 2°51.248 -999 0.024714 0.139646 -1.10504
2009-04-22 07:47:50 51°13.216 2°51.247 -999 0.024611 0.139064 -1.10504
2009-04-22 07:47:55 51°13.215 2°51.246 -999 0.024714 0.139649 -1.10504
2009-04-22 07:48:00 51°13.214 2°51.245 -999 0.024714 0.139649 -1.10504
2009-04-22 07:48:05 51°13.213 2°51.244 -999 0.024714 0.139649 -1.10504
2009-04-22 07:48:10 51°13.212 2°51.243 -999 0.024714 0.139649 -1.10504
2009-04-22 07:48:15 51°13.211 2°51.242 -999 0.024714 0.139649 -1.10504
2009-04-22 07:48:20 51°13.21 2°51.241 -999 0.024714 0.139651 -1.070216
2009-04-22 07:48:25 51°13.209 2°51.24 -999 0.024714 0.139651 -1.10504
2009-04-22 07:48:30 51°13.208 2°51.239 -999 0.024714 0.139651 -1.10504
2009-04-22 07:48:35 51°13.206 2°51.238 -999 0.024714 0.139654 -1.10504
2009-04-22 07:48:40 51°13.205 2°51.237 -999 0.024714 0.139654 -1.10504
2009-04-22 07:48:45 51°13.204 2°51.236 -999 0.024714 0.139654 -1.10504
2009-04-22 07:48:50 51°13.203 2°51.234 -999 0.024714 0.139654 -1.10504
2009-04-22 07:48:55 51°13.202 2°51.234 -999 0.024714 0.139654 -1.10504
2009-04-22 07:49:00 51°13.201 2°51.233 -999 0.024714 0.139654 -1.10504
2009-04-22 07:49:05 51°13.2 2°51.231 -999 0.024611 0.139074 -1.10504
2009-04-22 07:49:10 51°13.199 2°51.231 -999 0.024714 0.139656 -1.10504
2009-04-22 07:49:15 51°13.198 2°51.23 -999 0.024714 0.139656 -1.10504
2009-04-22 07:49:20 51°13.197 2°51.229 -999 0.024611 0.139074 -1.10504
2009-04-22 07:49:26 51°13.196 2°51.228 -999 0.024714 0.139656 -1.10504
2009-04-22 07:49:30 51°13.195 2°51.227 -999 0.024611 0.139074 -1.070216
2009-04-22 07:49:35 51°13.194 2°51.226 -999 0.024714 0.139659 -1.10504
2009-04-22 07:49:40 51°13.193 2°51.225 -999 0.024611 0.139076 -1.10504
2009-04-22 07:49:45 51°13.192 2°51.224 -999 0.024611 0.139076 -1.10504
2009-04-22 07:49:50 51°13.191 2°51.223 -999 0.024714 0.139659 -1.10504
2009-04-22 07:49:55 51°13.19 2°51.222 -999 0.024714 0.139661 -1.10504
2009-04-22 07:50:00 51°13.188 2°51.221 -999 0.024611 0.139079 -1.10504
2009-04-22 07:50:05 51°13.187 2°51.22 -999 0.024714 0.139661 -1.10504
2009-04-22 07:50:10 51°13.186 2°51.219 -999 0.024611 0.139079 -1.10504
2009-04-22 07:50:15 51°13.185 2°51.218 -999 0.024611 0.139079 -1.10504
2009-04-22 07:50:20 51°13.184 2°51.218 -999 0.024714 0.139661 -1.10504
2009-04-22 07:50:25 51°13.183 2°51.217 -999 0.024611 0.139081 -1.10504
2009-04-22 07:50:30 51°13.182 2°51.216 -999 0.024611 0.139081 -1.10504
2009-04-22 07:50:35 51°13.181 2°51.215 -999 0.024714 0.139666 -1.10504
2009-04-22 07:50:40 51°13.18 2°51.214 -999 0.024611 0.139084 -1.10504
2009-04-22 07:50:45 51°13.179 2°51.213 -999 0.024611 0.139084 -1.10504
2009-04-22 07:50:50 51°13.178 2°51.212 -999 0.024714 0.139666 -1.10504
2009-04-22 07:50:55 51°13.177 2°51.211 -999 0.024611 0.139084 -1.10504
2009-04-22 07:51:00 51°13.175 2°51.21 -999 0.024611 0.139084 -1.10504
2009-04-22 07:51:06 51°13.174 2°51.209 -999 0.024714 0.139668 -1.10504
2009-04-22 07:51:10 51°13.173 2°51.208 -999 0.024611 0.139086 -1.10504
2009-04-22 07:51:15 51°13.172 2°51.207 -999 0.024611 0.139086 -1.10504
2009-04-22 07:51:20 51°13.171 2°51.207 -999 0.024611 0.139086 -1.10504
2009-04-22 07:51:25 51°13.17 2°51.206 -999 0.024714 0.139671 -1.10504
2009-04-22 07:51:30 51°13.169 2°51.205 -999 0.024611 0.139088 -1.10504
2009-04-22 07:51:35 51°13.168 2°51.204 -999 0.024714 0.139671 -1.070216
2009-04-22 07:51:40 51°13.167 2°51.203 -999 0.024714 0.139671 -1.10504
2009-04-22 07:51:45 51°13.166 2°51.202 -999 0.024714 0.139671 -1.10504
2009-04-22 07:51:50 51°13.165 2°51.201 -999 0.024611 0.139088 -1.10504
2009-04-22 07:51:55 51°13.164 2°51.2 -999 0.024714 0.139671 -1.10504
2009-04-22 07:52:00 51°13.163 2°51.199 -999 0.024611 0.139088 -1.10504
2009-04-22 07:52:05 51°13.161 2°51.198 -999 0.024611 0.139088 -1.10504
2009-04-22 07:52:10 51°13.16 2°51.197 -999 0.024714 0.139673 -1.10504
2009-04-22 07:52:15 51°13.159 2°51.196 -999 0.024714 0.139673 -1.10504
2009-04-22 07:52:20 51°13.158 2°51.195 -999 0.024611 0.139091 -1.070216
2009-04-22 07:52:25 51°13.157 2°51.194 -999 0.024611 0.139091 -1.10504
2009-04-22 07:52:30 51°13.156 2°51.193 -999 0.024611 0.139093 -1.10504
2009-04-22 07:52:35 51°13.155 2°51.192 -999 0.024611 0.139093 -1.10504
2009-04-22 07:52:40 51°13.154 2°51.191 -999 0.024714 0.139676 -1.10504
2009-04-22 07:52:45 51°13.153 2°51.19 -999 0.024714 0.139676 -1.10504
2009-04-22 07:52:50 51°13.152 2°51.189 -999 0.024714 0.139676 -1.10504
2009-04-22 07:52:55 51°13.151 2°51.188 -999 0.024611 0.139096 -1.10504
2009-04-22 07:53:00 51°13.149 2°51.187 -999 0.024611 0.139096 -1.10504
2009-04-22 07:53:06 51°13.148 2°51.186 -999 0.024714 0.139678 -1.10504
2009-04-22 07:53:10 51°13.147 2°51.185 -999 0.024611 0.139096 -1.10504
2009-04-22 07:53:15 51°13.146 2°51.184 -999 0.024611 0.139096 -1.10504
2009-04-22 07:53:20 51°13.145 2°51.183 -999 0.024611 0.139096 -1.10504
2009-04-22 07:53:25 51°13.144 2°51.183 -999 0.024714 0.139681 -1.10504
2009-04-22 07:53:30 51°13.143 2°51.181 -999 0.024611 0.139098 -1.10504
2009-04-22 07:53:35 51°13.142 2°51.18 -999 0.024611 0.139101 -1.10504
2009-04-22 07:53:40 51°13.141 2°51.179 -999 0.024611 0.139101 -1.10504
2009-04-22 07:53:46 51°13.14 2°51.178 -999 0.024611 0.139101 -1.10504
2009-04-22 07:53:50 51°13.139 2°51.177 -999 0.024714 0.139681 -1.10504
2009-04-22 07:53:55 51°13.138 2°51.176 -999 0.024611 0.139101 -1.10504
2009-04-22 07:54:00 51°13.137 2°51.176 -999 0.024611 0.139101 -1.10504
2009-04-22 07:54:05 51°13.136 2°51.174 -999 0.024611 0.139103 -1.10504
2009-04-22 07:54:10 51°13.135 2°51.174 -999 0.024611 0.139103 -1.10504
2009-04-22 07:54:15 51°13.134 2°51.173 -999 0.024611 0.139103 -1.10504
2009-04-22 07:54:20 51°13.133 2°51.172 -999 0.024611 0.139103 -1.10504
2009-04-22 07:54:25 51°13.132 2°51.171 -999 0.024611 0.139103 -1.10504
2009-04-22 07:54:30 51°13.131 2°51.17 -999 0.024611 0.139106 -1.10504
2009-04-22 07:54:35 51°13.13 2°51.169 -999 0.024611 0.139106 -1.10504
2009-04-22 07:54:40 51°13.129 2°51.168 -999 0.024611 0.139106 -1.10504
2009-04-22 07:54:45 51°13.128 2°51.167 -999 0.024611 0.139106 -1.10504
2009-04-22 07:54:50 51°13.127 2°51.166 -999 0.024611 0.139106 -1.10504
2009-04-22 07:54:55 51°13.126 2°51.165 -999 0.024611 0.139108 -1.10504
2009-04-22 07:55:01 51°13.125 2°51.164 -999 0.024611 0.139108 -1.10504
2009-04-22 07:55:05 51°13.124 2°51.163 -999 0.024714 0.139691 -1.10504
2009-04-22 07:55:10 51°13.123 2°51.162 -999 0.024611 0.139108 -1.10504
2009-04-22 07:55:15 51°13.122 2°51.161 -999 0.024611 0.139108 -1.10504
2009-04-22 07:55:20 51°13.121 2°51.16 -999 0.024611 0.139108 -1.10504
2009-04-22 07:55:26 51°13.12 2°51.159 -999 0.024611 0.13911 -1.10504
2009-04-22 07:55:30 51°13.119 2°51.158 -999 0.024611 0.13911 -1.10504
2009-04-22 07:55:35 51°13.118 2°51.157 -999 0.024611 0.13911 -1.10504
2009-04-22 07:55:40 51°13.117 2°51.156 -999 0.024611 0.13911 -1.10504
2009-04-22 07:55:46 51°13.116 2°51.155 -999 0.024611 0.13911 -1.10504
2009-04-22 07:55:50 51°13.115 2°51.155 -999 0.024611 0.13911 -1.10504
2009-04-22 07:55:55 51°13.115 2°51.154 -999 0.024611 0.139113 -1.10504
2009-04-22 07:56:00 51°13.113 2°51.153 -999 0.024611 0.139113 -1.10504
2009-04-22 07:56:05 51°13.113 2°51.152 -999 0.024611 0.139113 -1.10504
2009-04-22 07:56:10 51°13.112 2°51.151 -999 0.024611 0.139115 -1.10504
2009-04-22 07:56:15 51°13.111 2°51.15 -999 0.024611 0.139115 -1.10504
2009-04-22 07:56:20 51°13.11 2°51.149 -999 0.024611 0.139115 -1.070216
2009-04-22 07:56:26 51°13.109 2°51.148 -999 0.024611 0.139115 -1.10504
2009-04-22 07:56:30 51°13.108 2°51.148 -999 0.024611 0.139115 -1.10504
2009-04-22 07:56:35 51°13.107 2°51.147 -999 0.024611 0.139115 -1.10504
2009-04-22 07:56:40 51°13.106 2°51.146 -999 0.024611 0.139115 -1.10504
2009-04-22 07:56:45 51°13.105 2°51.145 -999 0.024611 0.139115 -1.10504
2009-04-22 07:56:50 51°13.104 2°51.144 -999 0.024611 0.139118 -1.10504
2009-04-22 07:56:55 51°13.103 2°51.143 -999 0.024611 0.139118 -1.10504
2009-04-22 07:57:00 51°13.102 2°51.143 -999 0.024611 0.139118 -1.10504
2009-04-22 07:57:05 51°13.101 2°51.142 -999 0.024611 0.139118 -1.10504
2009-04-22 07:57:10 51°13.1 2°51.141 -999 0.024611 0.13912 -1.10504
2009-04-22 07:57:15 51°13.1 2°51.14 -999 0.024611 0.13912 -1.10504
2009-04-22 07:57:20 51°13.099 2°51.139 -999 0.024611 0.13912 -1.10504
2009-04-22 07:57:25 51°13.098 2°51.138 -999 0.024611 0.13912 -1.10504
2009-04-22 07:57:30 51°13.097 2°51.138 -999 0.024611 0.13912 -1.10504
2009-04-22 07:57:35 51°13.096 2°51.137 -999 0.024611 0.13912 -1.070216
2009-04-22 07:57:41 51°13.095 2°51.136 -999 0.024611 0.139123 -1.10504
2009-04-22 07:57:45 51°13.094 2°51.135 -999 0.024611 0.139123 -1.10504
2009-04-22 07:57:50 51°13.093 2°51.134 -999 0.024611 0.13912 -1.10504
2009-04-22 07:57:55 51°13.092 2°51.134 -999 0.024611 0.139123 -1.10504
2009-04-22 07:58:00 51°13.092 2°51.133 -999 0.024611 0.139123 -1.10504
2009-04-22 07:58:06 51°13.091 2°51.132 -999 0.024611 0.139125 -1.10504
2009-04-22 07:58:10 51°13.09 2°51.131 -999 0.024611 0.139123 -1.10504
2009-04-22 07:58:15 51°13.089 2°51.13 -999 0.024611 0.139123 -1.10504
2009-04-22 07:58:20 51°13.088 2°51.129 -999 0.024611 0.139125 -1.070216
2009-04-22 07:58:26 51°13.087 2°51.129 -999 0.024611 0.139125 -1.10504
2009-04-22 07:58:30 51°13.086 2°51.128 -999 0.024611 0.139125 -1.10504
2009-04-22 07:58:35 51°13.086 2°51.127 -999 0.024611 0.139125 -1.10504
2009-04-22 07:58:40 51°13.085 2°51.126 -999 0.024611 0.139128 -1.10504
2009-04-22 07:58:45 51°13.084 2°51.126 -999 0.024611 0.139128 -1.10504
2009-04-22 07:58:50 51°13.083 2°51.125 -999 0.024611 0.139128 -1.10504
2009-04-22 07:58:55 51°13.082 2°51.124 -999 0.024611 0.139128 -1.10504
2009-04-22 07:59:00 51°13.081 2°51.123 -999 0.024611 0.13913 -1.10504
2009-04-22 07:59:05 51°13.08 2°51.123 -999 0.024611 0.13913 -1.10504
2009-04-22 07:59:10 51°13.08 2°51.122 -999 0.024611 0.13913 -1.10504
2009-04-22 07:59:15 51°13.079 2°51.121 -999 0.024611 0.13913 -1.10504
2009-04-22 07:59:20 51°13.078 2°51.12 -999 0.024611 0.139132 -1.10504
2009-04-22 07:59:25 51°13.077 2°51.119 -999 0.024611 0.139132 -1.10504
2009-04-22 07:59:30 51°13.076 2°51.119 -999 0.024611 0.139132 -1.10504
2009-04-22 07:59:35 51°13.076 2°51.118 -999 0.024611 0.139135 -1.10504
2009-04-22 07:59:40 51°13.075 2°51.117 -999 0.024611 0.139135 -1.10504
2009-04-22 07:59:45 51°13.074 2°51.117 -999 0.024611 0.139135 -1.10504
2009-04-22 07:59:50 51°13.073 2°51.116 -999 0.024611 0.139135 -1.10504
2009-04-22 07:59:55 51°13.072 2°51.115 -999 0.024611 0.139137 -1.10504
2009-04-22 08:00:00 51°13.071 2°51.114 -999 0.024611 0.139137 -1.10504
2009-04-22 08:00:06 51°13.07 2°51.114 -999 0.024611 0.139137 -1.10504
2009-04-22 08:00:10 51°13.069 2°51.113 -999 0.024611 0.139137 -1.10504
2009-04-22 08:00:15 51°13.069 2°51.112 -999 0.024611 0.139137 -1.10504
2009-04-22 08:00:21 51°13.068 2°51.111 -999 0.024611 0.13914 -1.10504
2009-04-22 08:00:26 51°13.067 2°51.111 -999 0.024611 0.13914 -1.10504
2009-04-22 08:00:30 51°13.066 2°51.11 -999 0.024611 0.13914 -1.10504
2009-04-22 08:00:35 51°13.065 2°51.109 -999 0.024611 0.13914 -1.10504
2009-04-22 08:00:40 51°13.065 2°51.108 -999 0.024611 0.139142 -1.10504
2009-04-22 08:00:46 51°13.064 2°51.108 -999 0.024611 0.139142 -1.10504
2009-04-22 08:00:50 51°13.063 2°51.107 -999 0.024611 0.139142 -1.10504
2009-04-22 08:00:55 51°13.062 2°51.107 -999 0.024611 0.139142 -1.10504
2009-04-22 08:01:00 51°13.061 2°51.106 -999 0.024611 0.139145 -1.10504
2009-04-22 08:01:06 51°13.06 2°51.105 -999 0.024611 0.139145 -1.10504
2009-04-22 08:01:10 51°13.06 2°51.105 -999 0.024611 0.139145 -1.10504
2009-04-22 08:01:15 51°13.059 2°51.104 -999 0.024611 0.139145 -1.10504
2009-04-22 08:01:20 51°13.058 2°51.103 -999 0.024611 0.139145 -1.10504
2009-04-22 08:01:25 51°13.057 2°51.103 -999 0.024611 0.139145 -1.10504
2009-04-22 08:01:30 51°13.056 2°51.102 -999 0.024611 0.139145 -1.10504
2009-04-22 08:01:35 51°13.055 2°51.102 -999 0.024611 0.139147 -1.10504
2009-04-22 08:01:40 51°13.054 2°51.101 -999 0.024611 0.139147 -1.10504
2009-04-22 08:01:45 51°13.054 2°51.1 -999 0.024611 0.139147 -1.10504
2009-04-22 08:01:50 51°13.053 2°51.1 -999 0.024611 0.139147 -1.10504
2009-04-22 08:01:55 51°13.052 2°51.099 -999 0.024611 0.139147 -1.10504
2009-04-22 08:02:00 51°13.051 2°51.098 -999 0.024611 0.13915 -1.10504
2009-04-22 08:02:06 51°13.05 2°51.098 -999 0.024611 0.13915 -1.10504
2009-04-22 08:02:10 51°13.05 2°51.097 -999 0.024611 0.13915 -1.10504
2009-04-22 08:02:15 51°13.049 2°51.097 -999 0.024611 0.13915 -1.10504
2009-04-22 08:02:20 51°13.048 2°51.096 -999 0.024611 0.139152 -1.10504
2009-04-22 08:02:25 51°13.047 2°51.095 -999 0.024611 0.13915 -1.10504
2009-04-22 08:02:30 51°13.046 2°51.095 -999 0.024611 0.139152 -1.10504
2009-04-22 08:02:35 51°13.045 2°51.094 -999 0.024611 0.139155 -1.10504
2009-04-22 08:02:40 51°13.045 2°51.094 -999 0.024611 0.139155 -1.10504
2009-04-22 08:02:45 51°13.044 2°51.093 -999 0.024611 0.139155 -1.10504
2009-04-22 08:02:50 51°13.043 2°51.093 -999 0.024611 0.139155 -1.10504
2009-04-22 08:02:55 51°13.042 2°51.092 -999 0.024611 0.139155 -1.10504
2009-04-22 08:03:00 51°13.041 2°51.092 -999 0.024611 0.139155 -1.10504
2009-04-22 08:03:06 51°13.04 2°51.091 -999 0.024611 0.139157 -1.10504
2009-04-22 08:03:10 51°13.04 2°51.091 -999 0.024611 0.139157 -1.10504
2009-04-22 08:03:15 51°13.039 2°51.09 -999 0.024611 0.139157 -1.10504
2009-04-22 08:03:20 51°13.038 2°51.09 -999 0.024611 0.139157 -1.10504
2009-04-22 08:03:25 51°13.037 2°51.089 -999 0.024611 0.139157 -1.10504
2009-04-22 08:03:30 51°13.036 2°51.088 -999 0.024611 0.139157 -1.10504
2009-04-22 08:03:35 51°13.035 2°51.087 -999 0.024611 0.139157 -1.10504
2009-04-22 08:03:40 51°13.035 2°51.084 -999 0.024611 0.139157 -1.10504
2009-04-22 08:03:45 51°13.033 2°51.081 -999 0.024611 0.139157 -1.10504
2009-04-22 08:03:50 51°13.032 2°51.076 -999 0.024611 0.139159 -1.10504
2009-04-22 08:03:55 51°13.031 2°51.071 -999 0.024611 0.139162 -1.10504
2009-04-22 08:04:00 51°13.029 2°51.065 -999 0.024611 0.139167 -1.10504
2009-04-22 08:04:05 51°13.027 2°51.058 -999 0.024611 0.139169 -1.10504
2009-04-22 08:04:10 51°13.024 2°51.051 -999 0.024611 0.139172 -1.10504
2009-04-22 08:04:15 51°13.021 2°51.044 -999 0.024611 0.139172 -1.10504
2009-04-22 08:04:20 51°13.017 2°51.038 -999 0.024611 0.139174 -1.10504
2009-04-22 08:04:25 51°13.013 2°51.031 -999 0.024611 0.139179 -1.10504
2009-04-22 08:04:30 51°13.008 2°51.026 -999 0.024611 0.139181 -1.10504
2009-04-22 08:04:35 51°13.003 2°51.02 -999 0.024611 0.139181 -1.10504
2009-04-22 08:04:40 51°12.998 2°51.016 -999 0.024611 0.139181 -1.10504
2009-04-22 08:04:46 51°12.992 2°51.01 -999 0.024611 0.139181 -1.10504
2009-04-22 08:04:50 51°12.988 2°51.007 -999 0.024611 0.139179 -1.10504
2009-04-22 08:04:55 51°12.982 2°51.003 -999 0.024611 0.139177 -1.10504
2009-04-22 08:05:00 51°12.977 2°50.999 -999 0.024611 0.139177 -1.10504
2009-04-22 08:05:06 51°12.971 2°50.994 -999 0.024611 0.139174 -1.10504
2009-04-22 08:05:10 51°12.966 2°50.991 -999 0.024611 0.139172 -1.10504
2009-04-22 08:05:15 51°12.961 2°50.987 -999 0.024611 0.139172 -1.10504
2009-04-22 08:05:20 51°12.955 2°50.984 -999 0.024611 0.139172 -1.10504
2009-04-22 08:05:25 51°12.95 2°50.979 -999 0.024611 0.139169 -1.10504
2009-04-22 08:05:30 51°12.945 2°50.975 -999 0.024611 0.139169 -1.10504
2009-04-22 08:05:35 51°12.94 2°50.97 -999 0.024611 0.139169 -1.10504
2009-04-22 08:05:40 51°12.935 2°50.966 -999 0.024611 0.139172 -1.10504
2009-04-22 08:05:46 51°12.93 2°50.96 -999 0.024611 0.139172 -1.10504
2009-04-22 08:05:50 51°12.926 2°50.956 -999 0.024611 0.139172 -1.10504
2009-04-22 08:05:55 51°12.922 2°50.951 -999 0.024611 0.139172 -1.10504
2009-04-22 08:05:59 51°12.918 2°50.947 -999 0.024611 0.139172 -1.10504
2009-04-22 08:06:05 51°12.913 2°50.94 -999 0.024611 0.139174 -1.10504
2009-04-22 08:06:10 51°12.909 2°50.935 -999 0.024611 0.139174 -1.10504
2009-04-22 08:06:15 51°12.905 2°50.929 -999 0.024611 0.139174 -1.10504
2009-04-22 08:06:20 51°12.902 2°50.923 -999 0.024611 0.139174 -1.10504
2009-04-22 08:06:25 51°12.898 2°50.918 -999 0.024611 0.139177 -1.10504
2009-04-22 08:06:30 51°12.894 2°50.912 -999 0.024611 0.139177 -1.10504
2009-04-22 08:06:35 51°12.891 2°50.906 -999 0.024611 0.139177 -1.10504
2009-04-22 08:06:40 51°12.888 2°50.899 -999 0.024611 0.139177 -1.10504
2009-04-22 08:06:46 51°12.884 2°50.892 -999 0.024611 0.139177 -1.10504
2009-04-22 08:06:50 51°12.882 2°50.887 -999 0.024611 0.139177 -1.10504
2009-04-22 08:06:55 51°12.879 2°50.88 -999 0.024611 0.139179 -1.10504
2009-04-22 08:07:00 51°12.876 2°50.874 -999 0.024611 0.139179 -1.10504
2009-04-22 08:07:05 51°12.873 2°50.868 -999 0.024611 0.139179 -1.10504
2009-04-22 08:07:10 51°12.87 2°50.861 -999 0.024611 0.139179 -1.10504
2009-04-22 08:07:15 51°12.867 2°50.855 -999 0.024611 0.139179 -1.10504
2009-04-22 08:07:20 51°12.865 2°50.848 -999 0.024611 0.139179 -1.10504
2009-04-22 08:07:26 51°12.862 2°50.841 -999 0.024611 0.139181 -1.10504
2009-04-22 08:07:30 51°12.859 2°50.835 -999 0.024611 0.139179 -1.10504
2009-04-22 08:07:35 51°12.857 2°50.829 -999 0.024611 0.139181 -1.10504
2009-04-22 08:07:40 51°12.855 2°50.822 -999 0.024611 0.139181 -1.10504
2009-04-22 08:07:46 51°12.852 2°50.814 -999 0.024611 0.139181 -1.10504
2009-04-22 08:07:50 51°12.85 2°50.809 -999 0.024611 0.139181 -1.10504
2009-04-22 08:07:55 51°12.848 2°50.802 -999 0.024611 0.139181 -1.10504
2009-04-22 08:08:00 51°12.845 2°50.795 -999 0.024611 0.139184 -1.10504
2009-04-22 08:08:05 51°12.843 2°50.789 -999 0.024611 0.139181 -1.10504
2009-04-22 08:08:10 51°12.841 2°50.782 -999 0.024611 0.139184 -1.10504
2009-04-22 08:08:15 51°12.839 2°50.775 -999 0.024611 0.139184 -1.10504
2009-04-22 08:08:20 51°12.837 2°50.768 -999 0.024611 0.139184 -1.10504
2009-04-22 08:08:25 51°12.835 2°50.762 -999 0.024611 0.139184 -1.10504
2009-04-22 08:08:30 51°12.833 2°50.755 -999 0.024611 0.139184 -1.10504
2009-04-22 08:08:35 51°12.831 2°50.748 -999 0.024611 0.139186 -1.10504
2009-04-22 08:08:41 51°12.829 2°50.74 -999 0.024611 0.139186 -1.10504
2009-04-22 08:08:45 51°12.827 2°50.734 -999 0.024611 0.139186 -1.10504
2009-04-22 08:08:50 51°12.825 2°50.728 -999 0.024611 0.139186 -1.10504
2009-04-22 08:08:55 51°12.823 2°50.721 -999 0.024611 0.139186 -1.10504
2009-04-22 08:09:00 51°12.822 2°50.714 -999 0.024611 0.139189 -1.10504
2009-04-22 08:09:06 51°12.819 2°50.706 -999 0.024611 0.139189 -1.10504
2009-04-22 08:09:10 51°12.817 2°50.701 -999 0.024611 0.139189 -1.10504
2009-04-22 08:09:15 51°12.815 2°50.694 -999 0.024611 0.139189 -1.10504
2009-04-22 08:09:20 51°12.813 2°50.688 -999 0.024611 0.139189 -1.10504
2009-04-22 08:09:26 51°12.81 2°50.68 -999 0.024611 0.139189 -1.10504
2009-04-22 08:09:30 51°12.808 2°50.675 -999 0.024611 0.139189 -1.10504
2009-04-22 08:09:35 51°12.806 2°50.668 -999 0.024611 0.139189 -1.10504
2009-04-22 08:09:40 51°12.803 2°50.661 -999 0.024611 0.139189 -1.10504
2009-04-22 08:09:45 51°12.8 2°50.654 -999 0.024611 0.139189 -1.10504
2009-04-22 08:09:50 51°12.798 2°50.647 -999 0.024611 0.139189 -1.10504
2009-04-22 08:09:55 51°12.795 2°50.64 -999 0.024611 0.139189 -1.10504
2009-04-22 08:10:00 51°12.792 2°50.633 -999 0.024611 0.139189 -1.10504
2009-04-22 08:10:06 51°12.788 2°50.625 -999 0.024611 0.139189 -1.10504
2009-04-22 08:10:10 51°12.786 2°50.619 -999 0.024611 0.139191 -1.10504
2009-04-22 08:10:15 51°12.783 2°50.612 -999 0.024611 0.139191 -1.10504
2009-04-22 08:10:20 51°12.78 2°50.605 -999 0.024611 0.139191 -1.10504
2009-04-22 08:10:25 51°12.777 2°50.598 -999 0.024611 0.139191 -1.10504
2009-04-22 08:10:30 51°12.773 2°50.591 -999 0.024611 0.139194 -1.10504
2009-04-22 08:10:35 51°12.77 2°50.584 -999 0.024611 0.139191 -1.10504
2009-04-22 08:10:40 51°12.767 2°50.577 -999 0.024611 0.139194 -1.10504
2009-04-22 08:10:45 51°12.764 2°50.57 -999 0.024611 0.139194 -1.10504
2009-04-22 08:10:50 51°12.76 2°50.563 -999 0.024611 0.139194 -1.10504
2009-04-22 08:10:55 51°12.757 2°50.556 -999 0.024611 0.139194 -1.070216
2009-04-22 08:11:00 51°12.754 2°50.549 -999 0.024611 0.139194 -1.10504
2009-04-22 08:11:06 51°12.75 2°50.54 -999 0.024611 0.139196 -1.10504
2009-04-22 08:11:10 51°12.747 2°50.535 -999 0.024611 0.139196 -1.10504
2009-04-22 08:11:15 51°12.744 2°50.528 -999 0.024611 0.139196 -1.10504
2009-04-22 08:11:21 51°12.74 2°50.519 -999 0.024611 0.139196 -1.10504
2009-04-22 08:11:26 51°12.736 2°50.511 -999 0.024611 0.139196 -1.10504
2009-04-22 08:11:30 51°12.733 2°50.506 -999 0.024611 0.139196 -1.10504
2009-04-22 08:11:35 51°12.73 2°50.499 -999 0.024611 0.139199 -1.10504
2009-04-22 08:11:40 51°12.727 2°50.492 -999 0.024611 0.139199 -1.10504
2009-04-22 08:11:46 51°12.723 2°50.483 -999 0.024611 0.139199 -1.10504
2009-04-22 08:11:50 51°12.72 2°50.477 -999 0.024611 0.139199 -1.10504
2009-04-22 08:11:55 51°12.717 2°50.471 -999 0.024611 0.139201 -1.10504
2009-04-22 08:12:00 51°12.714 2°50.464 -999 0.024611 0.139201 -1.10504
2009-04-22 08:12:06 51°12.71 2°50.455 -999 0.024611 0.139201 -1.10504
2009-04-22 08:12:10 51°12.708 2°50.45 -999 0.024611 0.139201 -1.10504
2009-04-22 08:12:15 51°12.704 2°50.443 -999 0.024611 0.139201 -1.10504
2009-04-22 08:12:20 51°12.701 2°50.436 -999 0.024611 0.139201 -1.10504
2009-04-22 08:12:25 51°12.698 2°50.43 -999 0.024611 0.139201 -1.10504
2009-04-22 08:12:30 51°12.695 2°50.423 -999 0.024611 0.139203 -1.10504
2009-04-22 08:12:35 51°12.692 2°50.417 -999 0.024611 0.139203 -1.10504
2009-04-22 08:12:40 51°12.689 2°50.41 -999 0.024611 0.139203 -1.10504
2009-04-22 08:12:45 51°12.685 2°50.404 -999 0.024611 0.139203 -1.10504
2009-04-22 08:12:50 51°12.682 2°50.397 -999 0.024611 0.139203 -1.10504
2009-04-22 08:12:55 51°12.679 2°50.391 -999 0.024611 0.139206 -1.10504
2009-04-22 08:13:00 51°12.676 2°50.385 -999 0.024611 0.139203 -1.10504
2009-04-22 08:13:06 51°12.673 2°50.377 -999 0.024611 0.139206 -1.10504
2009-04-22 08:13:10 51°12.67 2°50.372 -999 0.024611 0.139206 -1.10504
2009-04-22 08:13:15 51°12.667 2°50.366 -999 0.024611 0.139206 -1.10504
2009-04-22 08:13:20 51°12.664 2°50.359 -999 0.024611 0.139206 -1.10504
2009-04-22 08:13:25 51°12.661 2°50.353 -999 0.024611 0.139206 -1.10504
2009-04-22 08:13:30 51°12.658 2°50.347 -999 0.024611 0.139206 -1.10504
2009-04-22 08:13:35 51°12.656 2°50.34 -999 0.024611 0.139208 -1.10504
2009-04-22 08:13:40 51°12.652 2°50.334 -999 0.024611 0.139208 -1.10504
2009-04-22 08:13:45 51°12.65 2°50.328 -999 0.024611 0.139208 -1.10504
2009-04-22 08:13:50 51°12.646 2°50.322 -999 0.024611 0.139208 -1.10504
2009-04-22 08:13:55 51°12.644 2°50.315 -999 0.024611 0.139208 -1.10504
2009-04-22 08:14:00 51°12.641 2°50.309 -999 0.024611 0.139208 -1.10504
2009-04-22 08:14:06 51°12.637 2°50.301 -999 0.024611 0.139211 -1.10504
2009-04-22 08:14:10 51°12.635 2°50.296 -999 0.024611 0.139211 -1.10504
2009-04-22 08:14:15 51°12.632 2°50.29 -999 0.024611 0.139211 -1.10504
2009-04-22 08:14:20 51°12.629 2°50.284 -999 0.024611 0.139211 -1.10504
2009-04-22 08:14:25 51°12.626 2°50.278 -999 0.024611 0.139213 -1.10504
2009-04-22 08:14:30 51°12.623 2°50.271 -999 0.024611 0.139211 -1.10504
2009-04-22 08:14:35 51°12.62 2°50.265 -999 0.024611 0.139213 -1.10504
2009-04-22 08:14:40 51°12.617 2°50.259 -999 0.024611 0.139213 -1.10504
2009-04-22 08:14:45 51°12.614 2°50.253 -999 0.024611 0.139213 -1.10504
2009-04-22 08:14:50 51°12.611 2°50.247 -999 0.024611 0.139213 -1.10504
2009-04-22 08:14:55 51°12.608 2°50.24 -999 0.024611 0.139213 -1.10504
2009-04-22 08:15:00 51°12.605 2°50.234 -999 0.024611 0.139213 -1.10504
2009-04-22 08:15:05 51°12.602 2°50.228 -999 0.024611 0.139216 -1.10504
2009-04-22 08:15:10 51°12.599 2°50.222 -999 0.024611 0.139216 -1.10504
2009-04-22 08:15:15 51°12.597 2°50.215 -999 0.024611 0.139216 -1.10504
2009-04-22 08:15:20 51°12.593 2°50.209 -999 0.024611 0.139216 -1.10504
2009-04-22 08:15:25 51°12.591 2°50.203 -999 0.024611 0.139216 -1.10504
2009-04-22 08:15:30 51°12.588 2°50.197 -999 0.024611 0.139218 -1.10504
2009-04-22 08:15:35 51°12.585 2°50.191 -999 0.024611 0.139218 -1.10504
2009-04-22 08:15:40 51°12.581 2°50.185 -999 0.024611 0.139218 -1.10504
2009-04-22 08:15:45 51°12.578 2°50.179 -999 0.024611 0.139218 -1.10504
2009-04-22 08:15:50 51°12.575 2°50.173 -999 0.024611 0.139218 -1.10504
2009-04-22 08:15:55 51°12.572 2°50.168 -999 0.024611 0.139221 -1.10504
2009-04-22 08:16:00 51°12.568 2°50.162 -999 0.024611 0.139221 -1.10504
2009-04-22 08:16:06 51°12.564 2°50.155 -999 0.024611 0.139221 -1.10504
2009-04-22 08:16:10 51°12.562 2°50.151 -999 0.024611 0.139221 -1.10504
2009-04-22 08:16:15 51°12.559 2°50.145 -999 0.024611 0.139221 -1.10504
2009-04-22 08:16:20 51°12.555 2°50.139 -999 0.024611 0.139221 -1.10504
2009-04-22 08:16:25 51°12.552 2°50.133 -999 0.024611 0.139223 -1.10504
2009-04-22 08:16:30 51°12.549 2°50.128 -999 0.024611 0.139221 -1.10504
2009-04-22 08:16:35 51°12.545 2°50.122 -999 0.024611 0.139221 -1.10504
2009-04-22 08:16:40 51°12.542 2°50.117 -999 0.024611 0.139223 -1.070216
2009-04-22 08:16:45 51°12.539 2°50.111 -999 0.024611 0.139223 -1.070216
2009-04-22 08:16:50 51°12.535 2°50.106 -999 0.024611 0.139223 -1.10504
2009-04-22 08:16:55 51°12.532 2°50.1 -999 0.024611 0.139223 -1.10504
2009-04-22 08:17:00 51°12.528 2°50.095 -999 0.024611 0.139223 -1.10504
2009-04-22 08:17:05 51°12.525 2°50.09 -999 0.024611 0.139226 -1.10504
2009-04-22 08:17:10 51°12.522 2°50.084 -999 0.024611 0.139226 -1.10504
2009-04-22 08:17:15 51°12.518 2°50.079 -999 0.024611 0.139226 -1.10504
2009-04-22 08:17:20 51°12.515 2°50.073 -999 0.024611 0.139226 -1.10504
2009-04-22 08:17:25 51°12.511 2°50.067 -999 0.024611 0.139226 -1.10504
2009-04-22 08:17:30 51°12.508 2°50.061 -999 0.024611 0.139228 -1.10504
2009-04-22 08:17:35 51°12.505 2°50.056 -999 0.024611 0.139228 -1.10504
2009-04-22 08:17:40 51°12.502 2°50.05 -999 0.024611 0.139228 -1.10504
2009-04-22 08:17:45 51°12.498 2°50.045 -999 0.024611 0.139228 -1.10504
2009-04-22 08:17:50 51°12.495 2°50.039 -999 0.024611 0.13923 -1.10504
2009-04-22 08:17:55 51°12.492 2°50.034 -999 0.024611 0.13923 -1.10504
2009-04-22 08:18:01 51°12.488 2°50.027 -999 0.024611 0.13923 -1.10504
2009-04-22 08:18:05 51°12.485 2°50.022 -999 0.024611 0.13923 -1.10504
2009-04-22 08:18:10 51°12.482 2°50.016 -999 0.024611 0.13923 -1.10504
2009-04-22 08:18:15 51°12.478 2°50.011 -999 0.024611 0.13923 -1.10504
2009-04-22 08:18:20 51°12.475 2°50.005 -999 0.024611 0.13923 -1.10504
2009-04-22 08:18:26 51°12.471 2°49.998 -999 0.024611 0.139233 -1.10504
2009-04-22 08:18:30 51°12.469 2°49.994 -999 0.024611 0.139233 -1.10504
2009-04-22 08:18:35 51°12.465 2°49.988 -999 0.024611 0.139233 -1.10504
2009-04-22 08:18:41 51°12.462 2°49.981 -999 0.024611 0.139235 -1.10504
2009-04-22 08:18:46 51°12.458 2°49.975 -999 0.024611 0.139235 -1.10504
2009-04-22 08:18:50 51°12.456 2°49.97 -999 0.024611 0.139235 -1.10504
2009-04-22 08:18:55 51°12.453 2°49.964 -999 0.024611 0.139235 -1.10504
2009-04-22 08:19:00 51°12.449 2°49.958 -999 0.024611 0.139238 -1.10504
2009-04-22 08:19:06 51°12.445 2°49.952 -999 0.024611 0.139235 -1.10504
2009-04-22 08:19:10 51°12.443 2°49.947 -999 0.024611 0.139238 -1.10504
2009-04-22 08:19:15 51°12.439 2°49.941 -999 0.024611 0.139238 -1.10504
2009-04-22 08:19:20 51°12.436 2°49.936 -999 0.024611 0.139238 -1.10504
2009-04-22 08:19:25 51°12.433 2°49.93 -999 0.024611 0.139238 -1.10504
2009-04-22 08:19:30 51°12.429 2°49.924 -999 0.024611 0.139238 -1.10504
2009-04-22 08:19:35 51°12.426 2°49.919 -999 0.024611 0.139238 -1.10504
2009-04-22 08:19:40 51°12.423 2°49.913 -999 0.024611 0.13924 -1.10504
2009-04-22 08:19:46 51°12.419 2°49.906 -999 0.024611 0.13924 -1.10504
2009-04-22 08:19:50 51°12.416 2°49.902 -999 0.024611 0.13924 -1.10504
2009-04-22 08:19:55 51°12.412 2°49.897 -999 0.024611 0.13924 -1.10504
2009-04-22 08:20:00 51°12.409 2°49.891 -999 0.024611 0.13924 -1.10504
2009-04-22 08:20:05 51°12.405 2°49.886 -999 0.024611 0.139243 -1.10504
2009-04-22 08:20:10 51°12.402 2°49.88 -999 0.024611 0.139243 -1.10504
2009-04-22 08:20:15 51°12.399 2°49.875 -999 0.024611 0.139243 -1.10504
2009-04-22 08:20:20 51°12.395 2°49.869 -999 0.024611 0.139243 -1.10504
2009-04-22 08:20:26 51°12.391 2°49.863 -999 0.024611 0.139243 -1.10504
2009-04-22 08:20:30 51°12.389 2°49.858 -999 0.024611 0.139243 -1.10504
2009-04-22 08:20:35 51°12.386 2°49.853 -999 0.024611 0.139243 -1.10504
2009-04-22 08:20:41 51°12.382 2°49.846 -999 0.024611 0.139245 -1.10504
2009-04-22 08:20:46 51°12.379 2°49.84 -999 0.024611 0.139245 -1.10504
2009-04-22 08:20:50 51°12.377 2°49.835 -999 0.024611 0.139243 -1.10504
2009-04-22 08:20:55 51°12.374 2°49.83 -999 0.024611 0.139245 -1.10504
2009-04-22 08:21:00 51°12.371 2°49.823 -999 0.024611 0.139245 -1.10504
2009-04-22 08:21:06 51°12.368 2°49.816 -999 0.024611 0.139245 -1.10504
2009-04-22 08:21:10 51°12.366 2°49.812 -999 0.024611 0.139248 -1.10504
2009-04-22 08:21:15 51°12.363 2°49.806 -999 0.024611 0.139248 -1.10504
2009-04-22 08:21:21 51°12.36 2°49.798 -999 0.024611 0.139248 -1.10504
2009-04-22 08:21:26 51°12.357 2°49.792 -999 0.024611 0.139248 -1.10504
2009-04-22 08:21:30 51°12.355 2°49.787 -999 0.024611 0.13925 -1.10504
2009-04-22 08:21:35 51°12.352 2°49.781 -999 0.024611 0.139248 -1.10504
2009-04-22 08:21:40 51°12.35 2°49.775 -999 0.024611 0.13925 -1.10504
2009-04-22 08:21:46 51°12.347 2°49.768 -999 0.024611 0.13925 -1.10504
2009-04-22 08:21:50 51°12.345 2°49.763 -999 0.024611 0.13925 -1.10504
2009-04-22 08:21:55 51°12.342 2°49.757 -999 0.024611 0.139252 -1.10504
2009-04-22 08:22:00 51°12.339 2°49.75 -999 0.024611 0.139252 -1.10504
2009-04-22 08:22:05 51°12.336 2°49.744 -999 0.024611 0.139252 -1.10504
2009-04-22 08:22:10 51°12.334 2°49.738 -999 0.024611 0.139255 -1.10504
2009-04-22 08:22:15 51°12.331 2°49.732 -999 0.024611 0.139255 -1.10504
2009-04-22 08:22:21 51°12.328 2°49.724 -999 0.024611 0.139255 -1.10504
2009-04-22 08:22:25 51°12.326 2°49.719 -999 0.024611 0.139255 -1.10504
2009-04-22 08:22:30 51°12.323 2°49.713 -999 0.024611 0.139255 -1.10504
2009-04-22 08:22:35 51°12.321 2°49.707 -999 0.024611 0.139257 -1.10504
2009-04-22 08:22:40 51°12.318 2°49.701 -999 0.024611 0.139255 -1.10504
2009-04-22 08:22:46 51°12.315 2°49.693 -999 0.024611 0.139255 -1.10504
2009-04-22 08:22:50 51°12.313 2°49.689 -999 0.024611 0.139255 -1.10504
2009-04-22 08:22:55 51°12.31 2°49.682 -999 0.024611 0.139257 -1.10504
2009-04-22 08:23:00 51°12.307 2°49.676 -999 0.024611 0.139257 -1.10504
2009-04-22 08:23:06 51°12.304 2°49.669 -999 0.024611 0.139257 -1.10504
2009-04-22 08:23:10 51°12.302 2°49.664 -999 0.024611 0.139257 -1.10504
2009-04-22 08:23:15 51°12.299 2°49.658 -999 0.024611 0.139257 -1.10504
2009-04-22 08:23:20 51°12.296 2°49.652 -999 0.024611 0.139257 -1.10504
2009-04-22 08:23:25 51°12.294 2°49.646 -999 0.025125 0.142187 -1.10504
2009-04-22 08:23:30 51°12.291 2°49.64 -999 0.025125 0.142192 -1.10504
2009-04-22 08:23:35 51°12.288 2°49.634 -999 0.025022 0.141601 -1.10504
2009-04-22 08:23:40 51°12.285 2°49.628 -999 0.025022 0.141601 -1.10504
2009-04-22 08:23:45 51°12.282 2°49.622 -999 0.025022 0.141601 -1.10504
2009-04-22 08:23:50 51°12.279 2°49.617 -999 0.025125 0.142175 -1.10504
2009-04-22 08:23:55 51°12.277 2°49.61 -999 0.025022 0.141593 -1.10504
2009-04-22 08:24:00 51°12.273 2°49.605 -999 0.025228 0.142766 -1.10504
2009-04-22 08:24:05 51°12.271 2°49.599 -999 0.025228 0.142761 -1.10504
2009-04-22 08:24:10 51°12.268 2°49.593 -999 0.025125 0.14217 -1.10504
2009-04-22 08:24:15 51°12.265 2°49.587 -999 0.025125 0.14217 -1.10504
2009-04-22 08:24:20 51°12.262 2°49.581 -999 0.025228 0.142743 -1.10504
2009-04-22 08:24:25 51°12.259 2°49.575 -999 0.024817 0.140632 -1.10504
2009-04-22 08:24:30 51°12.256 2°49.569 -999 0.025125 0.142618 -1.10504
2009-04-22 08:24:35 51°12.254 2°49.563 -999 0.025228 0.143395 -1.10504
2009-04-22 08:24:40 51°12.251 2°49.557 -999 0.025125 0.142773 -1.10504
2009-04-22 08:24:46 51°12.247 2°49.55 -999 0.025125 0.142773 -1.10504
2009-04-22 08:24:50 51°12.245 2°49.546 -999 0.025228 0.14337 -1.10504
2009-04-22 08:24:55 51°12.242 2°49.54 -999 0.025022 0.142153 -1.10504
2009-04-22 08:25:00 51°12.239 2°49.534 -999 0.025125 0.142788 -1.10504
2009-04-22 08:25:06 51°12.235 2°49.527 -999 0.025125 0.142801 -1.10504
2009-04-22 08:25:10 51°12.233 2°49.522 -999 0.025022 0.142224 -1.10504
2009-04-22 08:25:15 51°12.23 2°49.516 -999 0.025022 0.142224 -1.10504
2009-04-22 08:25:20 51°12.227 2°49.51 -999 0.02492 0.14165 -1.10504
2009-04-22 08:25:25 51°12.225 2°49.504 -999 0.025125 0.142818 -1.10504
2009-04-22 08:25:30 51°12.222 2°49.498 -999 0.025228 0.143387 -1.10504
2009-04-22 08:25:35 51°12.219 2°49.493 -999 0.025125 0.142788 -1.10504
2009-04-22 08:25:40 51°12.216 2°49.487 -999 0.025228 0.14337 -1.10504
2009-04-22 08:25:46 51°12.212 2°49.479 -999 0.025228 0.14337 -1.10504
2009-04-22 08:25:50 51°12.21 2°49.475 -999 0.025228 0.143357 -1.10504
2009-04-22 08:25:55 51°12.207 2°49.469 -999 0.025228 0.143349 -1.10504
2009-04-22 08:25:59 51°12.204 2°49.464 -999 0.025125 0.142768 -1.10504
2009-04-22 08:26:06 51°12.2 2°49.455 -999 0.025331 0.143951 -1.10504
2009-04-22 08:26:10 51°12.198 2°49.451 -999 0.025125 0.142768 -1.10504
2009-04-22 08:26:15 51°12.195 2°49.445 -999 0.025125 0.142768 -1.10504
2009-04-22 08:26:20 51°12.192 2°49.439 -999 0.025331 0.143944 -1.10504
2009-04-22 08:26:25 51°12.189 2°49.433 -999 0.025125 0.142768 -1.10504
2009-04-22 08:26:30 51°12.186 2°49.427 -999 0.025228 0.143352 -1.10504
2009-04-22 08:26:35 51°12.183 2°49.42 -999 0.025125 0.14278 -1.10504
2009-04-22 08:26:39 51°12.18 2°49.416 -999 0.025228 0.143377 -1.10504
2009-04-22 08:26:45 51°12.177 2°49.408 -999 0.025228 0.143377 -1.10504
2009-04-22 08:26:50 51°12.174 2°49.402 -999 0.025125 0.142803 -1.10504
2009-04-22 08:26:55 51°12.171 2°49.396 -999 0.025228 0.1434 -1.10504
2009-04-22 08:27:00 51°12.168 2°49.39 -999 0.025228 0.143408 -1.10504
2009-04-22 08:27:05 51°12.165 2°49.384 -999 0.025228 0.1434 -1.10504
2009-04-22 08:27:10 51°12.162 2°49.378 -999 0.025228 0.143395 -1.10504
2009-04-22 08:27:15 51°12.159 2°49.372 -999 0.025228 0.143395 -1.10504
2009-04-22 08:27:20 51°12.156 2°49.366 -999 0.025125 0.142808 -1.10504
2009-04-22 08:27:26 51°12.152 2°49.358 -999 0.025125 0.142824 -1.10504
2009-04-22 08:27:30 51°12.15 2°49.353 -999 0.025228 0.143418 -1.10504
2009-04-22 08:27:35 51°12.147 2°49.347 -999 0.025228 0.143423 -1.10504
2009-04-22 08:27:40 51°12.144 2°49.341 -999 0.025331 0.144008 -1.10504
2009-04-22 08:27:45 51°12.141 2°49.335 -999 0.025331 0.144008 -1.10504
2009-04-22 08:27:50 51°12.138 2°49.329 -999 0.025331 0.144 -1.10504
2009-04-22 08:27:55 51°12.135 2°49.323 -999 0.025434 0.14467 -1.10504
2009-04-22 08:28:01 51°12.131 2°49.315 -999 0.025434 0.144781 -1.10504
2009-04-22 08:28:05 51°12.129 2°49.31 -999 0.025743 0.146603 -1.10504
2009-04-22 08:28:10 51°12.126 2°49.304 -999 0.025846 0.147197 -1.10504
2009-04-22 08:28:15 51°12.123 2°49.298 -999 0.025846 0.147197 -1.10504
2009-04-22 08:28:20 51°12.12 2°49.291 -999 0.025743 0.146579 -1.10504
2009-04-22 08:28:26 51°12.117 2°49.284 -999 0.025846 0.147134 -1.10504
2009-04-22 08:28:30 51°12.114 2°49.279 -999 0.025743 0.146516 -1.10504
2009-04-22 08:28:35 51°12.111 2°49.272 -999 0.02564 0.145905 -1.10504
2009-04-22 08:28:40 51°12.109 2°49.266 -999 0.025743 0.146462 -1.10504
2009-04-22 08:28:45 51°12.106 2°49.26 -999 0.025743 0.146462 -1.10504
2009-04-22 08:28:50 51°12.103 2°49.254 -999 0.025434 0.144654 -1.10504
2009-04-22 08:28:55 51°12.1 2°49.247 -999 0.025537 0.145229 -1.10504
2009-04-22 08:29:00 51°12.097 2°49.241 -999 0.02564 0.145821 -1.10504
2009-04-22 08:29:06 51°12.094 2°49.233 -999 0.025743 0.146409 -1.10504
2009-04-22 08:29:10 51°12.091 2°49.228 -999 0.02564 0.145824 -1.10504
2009-04-22 08:29:15 51°12.089 2°49.222 -999 0.02564 0.145824 -1.10504
2009-04-22 08:29:20 51°12.086 2°49.215 -999 0.025743 0.146409 -1.10504
2009-04-22 08:29:25 51°12.083 2°49.209 -999 0.02564 0.145814 -1.10504
2009-04-22 08:29:30 51°12.08 2°49.202 -999 0.025743 0.146396 -1.10504
2009-04-22 08:29:35 51°12.077 2°49.196 -999 0.02564 0.145806 -1.10504
2009-04-22 08:29:40 51°12.074 2°49.189 -999 0.02564 0.145808 -1.10504
2009-04-22 08:29:46 51°12.071 2°49.181 -999 0.02564 0.145808 -1.10504
2009-04-22 08:29:50 51°12.069 2°49.176 -999 0.025846 0.146981 -1.10504
2009-04-22 08:29:55 51°12.066 2°49.17 -999 0.02564 0.145801 -1.10504
2009-04-22 08:30:01 51°12.062 2°49.162 -999 0.02564 0.145798 -1.10504
2009-04-22 08:30:06 51°12.059 2°49.155 -999 0.025743 0.146383 -1.10504
2009-04-22 08:30:10 51°12.057 2°49.15 -999 0.025743 0.146443 -1.10504
2009-04-22 08:30:15 51°12.054 2°49.143 -999 0.025743 0.146443 -1.10504
2009-04-22 08:30:20 51°12.051 2°49.137 -999 0.025743 0.146543 -1.10504
2009-04-22 08:30:26 51°12.048 2°49.129 -999 0.025846 0.147142 -1.10504
2009-04-22 08:30:30 51°12.045 2°49.124 -999 0.025743 0.146553 -1.10504
2009-04-22 08:30:35 51°12.042 2°49.117 -999 0.025743 0.146548 -1.10504
2009-04-22 08:30:39 51°12.04 2°49.112 -999 0.025743 0.146553 -1.10504
2009-04-22 08:30:46 51°12.036 2°49.103 -999 0.025743 0.146553 -1.10504
2009-04-22 08:30:50 51°12.034 2°49.098 -999 0.025846 0.147142 -1.10504
2009-04-22 08:30:55 51°12.031 2°49.091 -999 0.025743 0.146548 -1.10504
2009-04-22 08:31:00 51°12.028 2°49.084 -999 0.025846 0.147129 -1.10504